     2              OBSERVATION DATA    GPS                 RINEX VERSION / TYPE
TRRINEXO-V2.3.1-LH UCLA/SCEC 27-FEB-1994                    PGM / RUN BY / DATE
                                                            COMMENT
Original Marker Name: 0155                                  COMMENT
Campaign Name: Northridge 1994                              COMMENT
4-Character Station Name: 0155                              COMMENT
6-Character Antenna Code: TRMSST                            COMMENT
Vertical Measurement Point: BGP                             COMMENT
Vertical Offset to Rinex Ref. Point: 0.0597                 COMMENT
Radial Measurement Point: NGP                               COMMENT
Radial Offset to Rinex Ref. Point: 0.2334                   COMMENT
Antenna Height from Field Measurement: 1.7730 m             COMMENT
Original XYZ: -2501101.6908 -4668445.0328 3541933.3412      COMMENT
New XYZ position is based on association with SCEC monument COMMENT
E1C7W3X7+0011. Position of that monument is believed to be  COMMENT
valid to within 1 m horizontally; vertical accuracy         COMMENT
should be no worse than 3-times this value.                 COMMENT
                                                            COMMENT
Revised Rinex header created by UCSD GPS archive for        COMMENT
GSAC on 06-Apr-1999 (1999:096) 02:38:08 GMT                 COMMENT
For assistance contact dagnew@ucsd.edu or hjohnson@ucsd.edu COMMENT
                                                            COMMENT
HPGN 07 CI 1992                                             MARKER NAME
UNKNOWN OBSERVER CALIF DEPT TRANSPORTATION DISTRICT 7       OBSERVER / AGENCY
2767 TRIMBLE 4000 SST 4.81                                  REC # / TYPE / VERS
61987 TR 4000SST L1/L2 GEO                                  ANT # / TYPE
 -2501114.0000 -4668505.0000  3541968.0000                  APPROX POSITION XYZ
        1.6979        0.0000        0.0000                  ANTENNA: DELTA H/E/N
     1     2     0                                          WAVELENGTH FACT L1/2
     3    C1    L1    L2                                    # / TYPES OF OBSERV
    30                                                      INTERVAL
  1994     2    15    17     0    0.000000                  TIME OF FIRST OBS
  1994     2    15    19     1   30.000000                  TIME OF LAST OBS
     0                                                      # OF SATELLITES
                                                            END OF HEADER
 94  2 15 17  0  0.0000000  0  5 25 14 15 22 29
  21320625.984       33367.89418     26001.09919
  21626079.844      -27891.13117    -21733.31417
  21530814.516       35627.31117     27762.23617
  23607284.391      -37383.03316    -29129.43314
  23015469.773      -21165.99315    -16493.24615
 94  2 15 17  0 30.0000000  0  5 25 14 15 22 29
  21333353.891      100253.841 7     78119.993 9
  21615469.492      -83630.711 7    -65166.751 7
  21544417.297      107118.074 7     83469.285 7
  23593044.930     -112197.140 5    -87426.093 4
  23007395.188      -63573.631 5    -49538.147 5
 94  2 15 17  1  0.0000000  0  5 25 14 15 22 29
  21346122.500      167354.130 7    130405.887 9
  21604881.047     -139282.441 7   -108531.731 7
  21558086.375      178943.062 7    139436.791 7
  23578794.711     -187058.857 6   -145759.847 5
  22999314.930     -106046.394 5    -82633.796 5
 94  2 15 17  1 30.0000000  0  5 25 14 15 22 29
  21358940.336      234707.126 7    182888.693 9
  21594313.297     -194816.260 7   -151804.855 7
  21571818.531      251127.206 7    195684.142 7
  23564546.781     -261953.554 6   -204119.310 5
  22991225.281     -148547.053 5   -115751.178 5
 94  2 15 17  2  0.0000000  0  5 25 14 15 22 29
  21371815.070      302347.651 7    235595.546 9
  21583769.125     -250220.859 7   -194977.269 7
  21585624.781      323679.752 7    252218.565 7
  23550293.484     -336858.535 5   -262486.784 5
  22983138.188     -191059.109 5   -148877.446 5
 94  2 15 17  2 30.0000000  0  6 25 14 15 22 29  1
  21384743.164      370299.990 7    288545.387 9
  21573250.969     -305505.229 7   -238056.004 7
  21599498.367      396604.354 7    309042.885 7
  23536035.266     -411747.481 5   -320841.783 5
  22975050.039     -233565.994 5   -181999.669 5
  24784106.477          -0.15114
 94  2 15 17  3  0.0000000  0  6 25 14 15 22 29  1
  21397738.445      438599.585 7    341765.795 9
  21562753.734     -360665.797 7   -281038.267 7
  21613453.289      469918.081 7    366170.437 7
  23521790.492     -486604.005 5   -379171.513 4
  22966956.570     -276056.309 6   -215109.018 5
  24800881.430       88130.280 3
 94  2 15 17  3 30.0000000  0  6 25 14 15 22 29  1
  21410807.828      507270.658 7    395275.682 8
  21552281.102     -415695.654 7   -323918.684 7
  21627480.398      543625.355 7    423604.646 7
  23507561.430     -561413.928 5   -437464.960 5
  22958877.961     -318543.509 6   -248215.929 5
  24817626.398      176149.395 3
 94  2 15 17  4  0.0000000  0  6 25 14 15 22 29  1
  21423944.492      576294.675 7    449060.578 9
  21541836.484     -470596.531 7   -366698.590 7
  21641577.406      617724.376 7    481344.116 6
  23493338.727     -636165.353 5   -495712.828 5
  22950790.180     -361030.097 6   -281322.365 5
  24834368.234      264055.526 4
 94  2 15 17  4 30.0000000  0  6 25 14 15 22 29  1
  21437140.734      645646.745 7    503101.117 8
  21531415.602     -525346.107 7   -409360.606 7
  21655757.492      692216.784 7    539390.113 6
  23479125.508     -710874.096 5   -553927.406 5
  22942708.391     -403507.822 6   -314421.921 5
  24851061.688      351850.365 3
 94  2 15 17  5  0.0000000  0  6 25 14 15 22 29  1
  21450394.789      715306.711 7    557381.574 8
  21521036.492     -579899.871 7   -451870.035 8
  21670009.258      767108.251 7    597747.065 6
  23464910.367     -785538.763 5   -612107.628 4
  22934632.023     -445958.417 6   -347500.300 5
  24867745.258      439536.085 3
 94  2 15 17  5 30.0000000  0  6 25 14 15 22 29  1
  21463702.195      785233.509 8    611869.936 8
  21510694.609     -634247.862 7   -494219.117 7
  21684328.367      842393.016 6    656410.475 7
  23450707.414     -860149.747 5   -670246.040 4
  22926562.062     -488372.229 6   -380550.012 5
  24884412.516      527113.188 3        -0.42411
 94  2 15 17  6  0.0000000  0  6 25 14 15 22 29  1
  21477058.570      855410.662 8    666553.405 8
  21500390.711     -688388.684 7   -536406.769 8
  21698735.438      918081.584 6    715388.555 7
  23436524.844     -934698.666 5   -728336.106 5
  22918503.320     -530723.614 5   -413551.103 5
  24901057.125      614603.743 2     68173.882 1
 94  2 15 17  6 30.0000000  0  5 25 14 15 22 29
  21490461.070      925849.897 8    721441.083 8
  21490126.875     -742323.369 7   -578433.812 8
  21713219.227      994169.415 6    774677.746 6
  23422347.109    -1009193.082 5   -786383.692 5
  22910453.656     -573012.399 6   -446503.400 5
 94  2 15 17  7  0.0000000  0  5 25 14 15 22 29
  21503918.703      996573.136 8    776550.056 8
  21479900.875     -796075.197 7   -620318.355 8
  21727766.750     1070656.998 6    834278.417 7
  23408183.672    -1083612.413 5   -844372.763 5
  22902416.367     -615247.254 5   -479413.675 6
 94  2 15 17  7 30.0000000  0  5 25 14 15 22 29
  21517441.063     1067612.228 8    831905.141 8
  21469699.945     -849677.524 7   -662086.406 8
  21742398.109     1147544.261 6    894190.541 7
  23394039.055    -1157956.194 5   -902302.941 4
  22894385.664     -657447.108 5   -512296.687 6
 94  2 15 17  8  0.0000000  0  5 25 14 15 22 29
  21531025.094     1139001.748 8    887533.301 9
  21459527.180     -903138.544 7   -703744.345 8
  21757105.992     1224827.051 6    954410.855 7
  23379904.648    -1232226.208 5   -960175.687 3
  22886366.023     -699616.656 6   -545156.053 5
 94  2 15 17  8 30.0000000  0  5 25 14 15 22 29
  21544678.820     1210767.687 8    943454.755 9
  21449382.703     -956428.850 7   -745269.270 8
  21771891.242     1302503.234 6   1014937.721 7
  23365796.523    -1306409.604 6  -1017980.884 4
  22878342.180     -741761.492 6   -577996.184 5
 94  2 15 17  9  0.0000000  0  5 25 14 15 22 29
  21558409.633     1282907.651 8    999667.683 9
  21439280.273    -1009528.685 7   -786645.767 8
  21786745.578     1380576.961 6   1075774.351 7
  23351694.414    -1380495.571 6  -1075710.155 5
  22870328.836     -783880.618 6   -610816.281 5
 94  2 15 17  9 30.0000000  0  5 25 14 15 22 29
  21572204.578     1355403.122 8   1056157.605 8
  21429213.563    -1062417.066 7   -827857.503 8
  21801678.891     1459043.073 6   1136916.732 7
  23337618.094    -1454487.547 5  -1133366.196 5
  22862322.250     -825970.179 6   -643613.340 5
 94  2 15 17 10  0.0000000  0  5 25 14 15 22 29
  21586063.289     1428228.462 8   1112904.570 8
  21419195.289    -1115062.175 7   -868879.674 8
  21816685.211     1537901.416 6   1198364.751 7
  23323560.594    -1528368.244 6  -1190935.498 5
  22854321.094     -868015.055 6   -676375.597 5
 94  2 15 17 10 30.0000000  0  5 25 14 15 22 29
  21599978.492     1501354.894 8   1169886.150 8
  21409227.586    -1167453.262 7   -909703.911 8
  21831762.242     1617145.721 6   1260113.526 7
  23309515.672    -1602139.094 5  -1248419.225 5
  22846321.984     -910021.774 6   -709108.093 5
 94  2 15 17 11  0.0000000  0  5 25 14 15 22 29
  21613946.648     1574766.437 7   1227089.903 8
  21399303.406    -1219607.735 7   -950343.778 8
  21846915.336     1696778.598 6   1322165.063 6
  23295499.102    -1675786.575 5  -1305806.837 5
  22838334.953     -951983.190 6   -741805.306 5
 94  2 15 17 11 30.0000000  0  5 25 14 15 22 29
  21627973.531     1648470.087 8   1284521.278 8
  21389423.422    -1271522.096 7   -990796.524 8
  21862143.141     1776800.482 6   1384519.735 7
  23281515.352    -1749281.804 5  -1363075.784 5
  22830363.063     -993891.186 6   -774460.907 5
 94  2 15 17 12  0.0000000  0  5 25 14 15 22 29
  21642054.172     1722479.628 7   1342191.003 8
  21379592.461    -1323185.441 7  -1031053.690 8
  21877450.906     1857225.013 6   1447188.170 7
  23267560.656    -1822590.941 5  -1420199.700 5
  22822403.039    -1035728.940 6   -807061.754 5
 94  2 15 17 12 30.0000000  0  5 25 14 15 22 29
  21656193.688     1796775.877 7   1400084.135 7
  21369803.164    -1374632.367 7  -1071142.216 7
  21892826.508     1938026.329 6   1510150.189 6
  23253645.930    -1895748.107 5  -1477205.236 4
  22814447.016    -1077523.966 6   -839629.305 5
 94  2 15 17 13  0.0000000  0  5 25 14 15 22 29
  21670392.344     1871370.312 7   1458209.627 8
  21360054.656    -1425869.841 7  -1111067.524 8
  21908271.133     2019204.311 6   1573405.714 6
  23239754.305    -1968748.091 5  -1534088.283 5
  22806502.289    -1119267.802 6   -872156.967 5
 94  2 15 17 13 30.0000000  0  5 25 14 15 22 29
  21684638.094     1946264.216 7   1516568.458 9
  21350345.664    -1476890.924 7  -1150824.218 8
  21923793.266     2100756.566 7   1636952.863 6
  23225893.711    -2041596.197 5  -1590852.958 5
  22798568.305    -1160964.508 6   -904647.908 5
 94  2 15 17 14  0.0000000  0  5 25 14 15 22 29
  21698949.977     2021449.802 7   1575154.575 9
  21340674.289    -1527700.631 7  -1190416.208 8
  21939385.102     2182685.324 6   1700793.431 6
  23212047.930    -2114324.323 5  -1647524.141 5
  22790641.203    -1202614.084 6   -937102.129 6
 94  2 15 17 14 30.0000000  0  5 25 14 15 22 29
  21713315.117     2096946.571 7   1633983.167 9
  21331047.641    -1578293.395 7  -1229839.159 8
  21955045.367     2264993.347 6   1764929.489 6
  23198235.328    -2186941.893 5  -1704109.210 5
  22782726.289    -1244212.918 6   -969516.794 6
 94  2 15 17 15  0.0000000  0  5 25 14 15 22 29
  21727744.484     2172767.481 7   1693064.338 9
  21321464.367    -1628656.376 7  -1269083.042 8
  21970785.625     2347678.074 6   1829359.098 6
  23184430.430    -2259436.426 5  -1760598.381 6
  22774821.914    -1285762.543 6  -1001893.128 6
 94  2 15 17 15 30.0000000  0  5 25 14 15 22 29
  21742232.023     2248899.212 7   1752387.707 9
  21311926.852    -1678781.031 7  -1308141.220 8
  21986582.383     2430734.751 6   1894078.532 6
  23170656.516    -2331807.390 5  -1816991.281 5
  22766927.102    -1327267.108 6  -1034234.347 6
 94  2 15 17 16  0.0000000  0  5 25 14 15 22 29
  21756777.008     2325345.580 7   1811956.260 9
  21302433.508    -1728655.209 7  -1347004.233 8
  22002463.156     2514162.568 6   1959087.165 6
  23156916.766    -2404047.187 6  -1873281.992 6
  22759038.563    -1368707.271 6  -1066525.394 6
 94  2 15 17 16 30.0000000  0  5 25 14 15 22 29
  21771389.508     2402110.601 8   1871773.103 9
  21292995.258    -1778262.486 7  -1385659.259 8
  22018403.422     2597956.613 6   2024381.179 6
  23143201.555    -2476124.130 6  -1929445.807 5
  22751167.047    -1410074.179 6  -1098759.340 6
 94  2 15 17 17  0.0000000  0  5 25 14 15 22 29
  21786048.953     2479170.665 7   1931819.852 9
  21283607.617    -1827595.032 7  -1424100.218 8
  22034416.031     2682113.890 6   2089958.203 6
  23129523.633    -2548024.399 6  -1985471.940 6
  22743307.453    -1451366.619 6  -1130935.298 6
 94  2 15 17 17 30.0000000  0  5 25 14 15 22 29
  21800769.914     2556511.755 8   1992085.589 8
  21274269.992    -1876658.570 7  -1462331.557 8
  22050508.102     2766636.711 6   2155820.100 6
  23115871.164    -2619741.834 6  -2041355.651 5
  22735463.719    -1492581.484 6  -1163050.798 6
 94  2 15 17 18  0.0000000  0  5 25 14 15 22 29
  21815541.078     2634139.396 8   2052574.619 8
  21264983.250    -1925456.641 7  -1500356.048 8
  22066653.891     2851518.406 6   2221961.618 6
  23102264.492    -2691274.074 6  -2097095.055 5
  22727634.102    -1533726.141 6  -1195111.571 6
 94  2 15 17 18 30.0000000  0  5 25 14 15 22 29
  21830367.586     2712053.645 7   2113286.971 8
  21255749.344    -1973991.781 7  -1538175.637 8
  22082873.281     2936755.091 6   2288379.771 6
  23088683.570    -2762615.342 6  -2152685.622 5
  22719816.922    -1574810.722 6  -1227125.556 6
 94  2 15 17 19  0.0000000  0  5 25 14 15 22 29
  21845249.133     2790260.399 7   2174227.256 8
  21246562.391    -2022272.444 7  -1575796.936 8
  22099168.773     3022350.637 6   2355077.537 6
  23075143.828    -2833760.524 6  -2208123.424 5
  22712010.969    -1615837.323 6  -1259094.328 6
 94  2 15 17 19 30.0010000  0  5 25 14 15 22 29
  21860190.169     2868774.521 7   2235407.026 8
  21237422.739    -2070293.807 7  -1613216.178 8
  22115525.153     3108301.189 6   2422051.926 6
  23061641.497    -2904719.668 6  -2263416.290 5
  22704216.536    -1656803.072 6  -1291015.691 6
 94  2 15 17 20  0.0010000  0  5 25 14 15 22 29
  21875187.849     2947595.730 7   2296826.097 8
  21228339.114    -2118035.091 7  -1650417.193 8
  22131944.872     3194596.917 6   2489295.295 6
  23048173.435    -2975492.735 6  -2318564.122 5
  22696430.591    -1697701.985 6  -1322884.988 6
 94  2 15 17 20 30.0010000  0  5 25 14 15 22 29
  21890247.911     3026726.916 8   2358486.712 8
  21219307.966    -2165487.360 7  -1687393.006 8
  22148431.653     3281243.181 6   2556811.791 6
  23034745.122    -3046073.923 6  -2373562.454 5
  22688662.028    -1738537.739 6  -1354705.068 6
 94  2 15 17 21  0.0010000  0  5 25 14 15 22 29
  21905363.630     3106160.094 8   2420382.646 8
  21210335.638    -2212638.817 7  -1724134.409 8
  22164987.997     3368239.545 6   2624601.105 6
  23021347.083    -3116457.396 6  -2428406.744 5
  22680900.067    -1779309.806 6  -1386475.532 6
 94  2 15 17 21 30.0010000  0  5 25 14 15 22 29
  21920535.231     3185880.510 8   2482502.391 8
  21201421.466    -2259487.713 7  -1760640.053 8
  22181604.755     3455580.795 6   2692659.180 6
  23007997.067    -3186649.760 6  -2483102.100 5
  22673160.239    -1820016.876 6  -1418195.328 6
 94  2 15 17 22  0.0010000  0  5 25 14 15 22 29
  21935752.606     3265864.901 7   2544827.844 8
  21192560.466    -2306046.276 7  -1796919.458 8
  22198295.427     3543263.999 6   2760983.686 6
  22994676.911    -3256632.876 6  -2537634.388 5
  22665421.653    -1860672.772 6  -1449875.246 6
 94  2 15 17 22 30.0010000  0  5 25 14 15 22 29
  21951022.966     3346099.603 7   2607348.342 8
  21183756.130    -2352328.809 7  -1832983.782 8
  22215041.560     3631288.668 6   2829574.276 6
  22981398.692    -3326391.597 5  -2591991.845 5
  22657692.325    -1901271.258 6  -1481510.452 6
 94  2 15 17 23  0.0010000  0  5 25 14 15 22 29
  21966338.786     3426588.114 7   2670066.615 7
  21175001.731    -2398322.369 7  -1868822.933 8
  22231861.208     3719666.601 6   2898440.135 6
  22968173.403    -3395906.188 6  -2646159.067 5
  22649987.396    -1941790.044 6  -1513083.525 6
 94  2 15 17 23 30.0010000  0  5 25 14 15 22 29
  21981705.435     3507324.586 7   2732978.114 8
  21166306.810    -2444028.404 7  -1904438.043 8
  22248746.067     3808387.025 6   2967572.860 6
  22954991.958    -3465190.129 6  -2700146.542 6
  22642282.645    -1982253.144 6  -1544613.227 6
 94  2 15 17 24  0.0010000  0  5 25 14 15 22 29
  21997117.450     3588320.792 7   2796091.977 8
  21157664.317    -2489427.743 7  -1939814.167 8
  22265690.036     3897448.314 6   3036971.218 6
  22941847.317    -3534231.784 6  -2753945.226 6
  22634590.310    -2022667.787 6  -1576105.141 6
 94  2 15 17 24 30.0010000  0  5 25 14 15 22 29
  22012582.583     3669585.164 7   2859414.801 7
  21149085.146    -2534515.891 7  -1974947.802 8
  22282700.685     3986842.688 6   3106629.102 6
  22928753.450    -3603049.672 6  -2807569.548 5
  22626909.075    -2063031.277 6  -1607557.220 6
 94  2 15 17 25  0.0010000  0  5 25 14 15 22 29
  22028097.216     3751133.322 7   2922958.768 7
  21140570.317    -2579269.937 7  -2009821.092 8
  22299780.708     4076569.169 6   3176545.772 6
  22915701.028    -3671643.022 6  -2861018.901 5
  22619238.622    -2103342.094 6  -1638968.244 6
 94  2 15 17 25 30.0010000  0  5 25 14 15 22 29
  22043669.364     3832971.544 7   2986728.761 7
  21132114.755    -2623696.917 7  -2044439.533 8
  22316912.091     4166619.199 6   3246714.553 6
  22902691.606    -3740020.668 6  -2914300.149 6
  22611583.177    -2143597.845 6  -1670336.360 6
 94  2 15 17 26  0.0010000  0  5 25 14 15 22 29
  22059299.403     3915104.825 7   3050728.660 8
  21123714.810    -2667812.268 7  -2078815.153 8
  22334113.606     4256997.289 6   3317138.981 6
  22889721.552    -3808163.591 6  -2967398.520 5
  22603940.739    -2183768.951 7  -1701638.516 6
 94  2 15 17 26 30.0010000  0  5 25 14 15 22 29
  22074981.927     3997523.844 7   3114951.209 8
  21115381.192    -2711629.045 7  -2112958.113 8
  22351373.560     4347696.871 6   3387813.896 6
  22876802.310    -3876068.521 6  -3020311.454 6
  22596307.974    -2223856.383 7  -1732875.501 6
 94  2 15 17 27  0.0010000  0  5 25 14 15 22 29
  22090721.380     4080227.136 7   3179395.281 8
  21107100.239    -2755152.284 7  -2146872.337 8
  22368690.614     4438714.884 6   3458736.953 6
  22863929.528    -3943718.842 6  -3073025.966 5
  22588691.263    -2263873.467 7  -1764057.659 6
 94  2 15 17 27 30.0010000  0  5 25 14 15 22 29
  22106516.153     4163210.682 7   3244057.715 8
  21098870.989    -2798397.072 7  -2180569.575 8
  22386068.646     4530052.723 6   3529909.213 6
  22851109.778    -4011107.430 6  -3125536.542 5
  22581091.239    -2303828.936 7  -1795191.797 6
 94  2 15 17 28  0.0010000  0  5 25 14 15 22 29
  22122354.317     4246453.620 7   3308922.298 8
  21090693.161    -2841356.374 7  -2214044.372 8
  22403513.083     4621704.969 6   3601326.481 6
  22838328.896    -4078234.321 6  -3177843.212 6
  22573494.903    -2343733.806 6  -1826286.497 6
 94  2 15 17 28 30.0010000  0  5 25 14 15 22 29
  22138244.099     4329942.536 7   3373978.534 8
  21082579.356    -2884010.446 7  -2247281.317 8
  22421013.888     4713668.005 6   3672985.915 6
  22825607.239    -4145104.533 6  -3229949.856 6
  22565910.224    -2383588.869 6  -1857342.391 6
 94  2 15 17 29  0.0010000  0  5 25 14 15 22 29
  22154179.810     4413680.263 7   3439228.645 8
  21074519.950    -2926347.598 7  -2280271.314 8
  22438572.638     4805946.495 6   3744891.161 6
  22812932.028    -4211717.014 6  -3281855.663 6
  22558343.817    -2423374.138 6  -1888343.906 6
 94  2 15 17 29 30.0010000  0  5 25 14 15 22 29
  22170158.060     4497660.043 7   3504667.367 8
  21066530.317    -2968344.235 7  -2312995.976 8
  22456192.067     4898534.577 6   3817037.638 6
  22800306.177    -4278078.175 6  -3333565.666 6
  22550785.802    -2463072.310 6  -1919277.540 6
 94  2 15 17 30  0.0010000  0  5 25 14 15 22 29
  22186186.505     4581882.509 7   3570295.206 7
  21058607.880    -3009972.694 7  -2345433.730 8
  22473868.185     4991430.930 6   3889424.335 6
  22787723.185    -4344172.952 6  -3385068.101 6
  22543255.177    -2502658.279 6  -1950123.733 6
 94  2 15 17 30 30.0010000  0  5 25 14 15 22 29
  22202261.356     4666371.697 7   3636130.875 7
  21050758.552    -3051222.278 7  -2377576.271 8
  22491608.716     5084635.087 7   3962050.856 6
  22775203.325    -4409982.232 6  -3436348.061 6
  22535749.528    -2542120.535 6  -1980873.555 6
 94  2 15 17 31  0.0010000  0  5 25 14 15 22 29
  22218393.724     4751142.417 7   3702185.920 7
  21042984.310    -3092084.756 7  -2409417.188 8
  22509400.810     5178143.859 7   4034914.774 6
  22762735.419    -4475499.002 6  -3487400.111 6
  22528261.638    -2581467.602 6  -2011533.617 6
 94  2 15 17 31 30.0010000  0  5 25 14 15 22 29
  22234579.528     4836188.398 7   3768455.456 7
  21035278.942    -3132565.694 7  -2440960.772 8
  22527247.716     5271952.441 7   4108012.293 6
  22750323.208    -4540717.860 6  -3538220.020 6
  22520791.708    -2620709.779 6  -2042111.920 6
 94  2 15 17 32  0.0010000  0  5 25 14 15 22 29
  22250811.903     4921501.273 7   3834932.960 7
  21027643.778    -3172692.025 7  -2472228.056 8
  22545160.474     5366056.784 7   4181340.277 6
  22737971.638    -4605640.876 6  -3588809.397 6
  22513337.067    -2659865.965 6  -2072623.251 6
 94  2 15 17 32 30.0010000  0  5 25 14 15 22 29
  22267095.231     5007075.143 7   3901613.831 7
  21020072.497    -3212476.616 7  -2503229.041 8
  22563127.927     5460453.284 7   4254895.911 6
  22725668.638    -4670272.613 6  -3639171.794 6
  22505901.794    -2698960.751 6  -2103086.707 6
 94  2 15 17 33  0.0010000  0  5 25 14 15 22 29
  22283426.028     5092885.250 7   3968478.811 7
  21012566.755    -3251923.637 7  -2533966.990 8
  22581138.489     5555138.348 6   4328676.405 6
  22713423.263    -4734623.567 6  -3689315.446 6
  22498467.028    -2738007.530 6  -2133512.785 6
 94  2 15 17 33 30.0010000  0  5 25 14 15 22 29
  22299800.036     5178917.624 7   4035516.954 7
  21005126.427    -3291036.347 7  -2564444.440 9
  22599211.419     5650111.302 6   4402681.233 6
  22701231.091    -4798691.819 6  -3739238.777 6
  22491047.583    -2777009.186 6  -2163903.641 6
 94  2 15 17 34  0.0010000  0  5 25 14 15 22 29
  22316212.989     5265174.611 7   4102730.147 7
  20997747.935    -3329806.195 7  -2594654.704 8
  22617336.927     5745375.060 6   4476912.660 6
  22689096.935    -4862470.391 6  -3788936.390 6
  22483636.708    -2815964.400 6  -2194258.422 6
 94  2 15 17 34 30.0010000  0  5 25 14 15 22 29
  22332667.216     5351658.324 7   4170120.004 7
  20990432.599    -3368232.372 7  -2624597.191 9
  22635523.231     5840924.224 6   4551366.470 6
  22677014.270    -4925956.455 6  -3838406.079 6
  22476229.606    -2854869.457 7  -2224574.059 6
 94  2 15 17 35  0.0010000  0  5 25 14 15 22 29
  22349166.169     5438367.611 7   4237685.618 7
  20983191.239    -3406308.473 7  -2654266.886 8
  22653759.177     5936756.665 6   4626041.016 6
  22664988.231    -4989150.163 6  -3887647.956 6
  22468839.044    -2893712.532 7  -2254841.409 6
 94  2 15 17 35 30.0010000  0  6 25 14 15 18 22 29
  22365717.099     5525319.556 7   4305440.332 7
  20976005.716    -3444041.419 7  -2683669.196 8
  22672052.747     6032870.928 6   4700935.175 6
  24982185.317      -67561.035 5
  22653021.911    -5052031.990 6  -3936646.833 6
  22461461.169    -2932477.959 6  -2285048.245 6
 94  2 15 17 36  0.0010000  0  6 25 14 15 18 22 29
  22382306.185     5612513.516 7   4373383.622 7
  20968891.255    -3481439.211 7  -2712810.350 8
  22690394.497     6129255.021 6   4776039.589 6
  24969317.802     -135144.575 5    -26332.95713
  22641121.310    -5114589.665 6  -3985393.122 6
  22454102.544    -2971156.393 6  -2315187.295 6
 94  2 15 17 36 30.0010000  0  6 25 14 15 18 22 29
  22398944.896     5699943.443 7   4441510.795 7
  20961842.302    -3518477.623 7  -2741671.472 8
  22708784.997     6225903.356 6   4851349.883 6
  24956452.294     -202739.566 5    -79004.390 3
  22629274.396    -5176813.221 6  -4033879.041 6
  22446764.685    -3009742.418 6  -2345254.330 6
 94  2 15 17 37  0.0010000  0  6 25 14 15 18 22 29
  22415628.036     5787606.910 7   4509819.935 7
  20954870.255    -3555130.685 7  -2770232.318 8
  22727230.349     6322814.327 6   4926864.869 6
  24943602.677     -270327.250 5   -131670.111 2
  22617502.833    -5238693.993 6  -4082097.841 6
  22439434.638    -3048228.077 6  -2375243.136 6
 94  2 15 17 37 30.0010000  0  6 25 14 15 18 22 29
  22432354.138     5875506.847 7   4578313.330 7
  20947968.216    -3591391.486 7  -2798487.510 8
  22745718.989     6419986.833 6   5002583.620 6
  24930730.177     -337896.603 3   -184321.516 1
  22605795.333    -5300224.015 6  -4130043.350 5
  22432130.989    -3086611.794 6  -2405152.544 6
 94  2 15 17 38  0.0010000  0  6 25 14 15 18 22 29
  22449123.177     5963639.436 7   4646988.022 7
  20941150.310    -3627229.374 7  -2826413.156 8
  22764259.856     6517426.098 6   5078510.222 6
  24917891.903     -405432.834 5   -236947.184 2
  22594148.864    -5361411.951 6  -4177722.287 6
  22424848.716    -3124900.442 6  -2434987.850 6
 94  2 15 17 38 30.0010000  0  6 25 14 15 18 22 29
  22465942.466     6052005.151 7   4715844.383 7
  20934407.856    -3662637.624 7  -2854004.013 8
  22782849.130     6615130.284 6   5154643.281 6
  24905044.802     -472940.156 4   -289550.247 2
  22582571.185    -5422279.072 6  -4225151.238 6
  22417577.122    -3163105.176 7  -2464757.774 6
 94  2 15 17 39  0.0010000  0  6 25 14 15 18 22 29
  22482801.989     6140613.210 7   4784889.556 7
  20927748.849    -3697643.429 7  -2881281.283 8
  22801493.005     6713090.002 6   5230975.452 6
  24892197.364     -540435.662 3   -342144.205 2
  22571046.755    -5482837.398 6  -4272339.584 6
  22410319.958    -3201230.152 7  -2494465.555 6
 94  2 15 17 39 30.0010000  0  6 25 14 15 18 22 29
  22499704.583     6229455.858 7   4854117.518 7
  20921163.755    -3732271.730 7  -2908264.400 8
  22820178.458     6811300.033 6   5307502.658 6
  24879353.755     -607943.291 4   -394747.556 2
  22559577.935    -5543080.939 6  -4319282.633 6
  22403074.997    -3239285.625 7  -2524119.186 6
 94  2 15 17 40  0.0010000  0  6 25 14 15 18 22 29
  22516661.411     6318532.155 7   4923527.592 7
  20914640.481    -3766520.945 7  -2934952.120 8
  22838917.935     6909763.668 6   5384227.469 6
  24866507.411     -675466.622 4   -447363.143 1
  22548177.669    -5602999.702 6  -4365972.621 6
  22395853.458    -3277264.490 7  -2553713.125 6
 94  2 15 17 40 30.0010000  0  6 25 14 15 18 22 29
  22533653.216     6407838.057 7   4993116.553 7
  20908196.224    -3800408.934 7  -2961358.355 8
  22857700.661     7008477.609 6   5461147.353 6
  24853632.552     -743018.973 2   -500001.340 1
  22536840.153    -5662574.716 6  -4412394.728 6
  22388640.177    -3315152.239 7  -2583236.042 6
 94  2 15 17 41  0.0010000  0  6 25 14 15 18 22 29
  22550687.825     6497352.682 7   5062868.157 7
  20901812.138    -3833943.953 7  -2987489.563 8
  22876530.325     7107434.507 6   5538256.512 6
  24840779.513     -810603.637 3   -552664.794 1
  22525569.122    -5721795.436 6  -4458540.753 6
  22381451.036    -3352946.921 7  -2612686.455 6
 94  2 15 17 41 30.0010000  0  6 25 14 15 18 22 29
  22567758.200     6587049.384 7   5132761.620 7
  20895497.692    -3867119.003 7  -3013340.263 8
  22895408.989     7206633.114 6   5615554.041 6
  24827922.528     -878198.274 3   -605335.874 1
  22514372.575    -5780659.627 6  -4504408.950 6
  22374273.833    -3390659.703 6  -2642073.054 6
 94  2 15 17 42  0.0010000  0  6 25 14 15 18 22 29
  22584855.700     6676926.700 7   5202795.823 7
  20889259.646    -3899915.400 7  -3038895.916 8
  22914334.966     7306065.155 6   5693033.454 6
  24815042.552     -945789.732 3
  22503235.981    -5839187.552 6  -4550015.154 6
  22367113.435    -3428287.618 6  -2671393.505 6
 94  2 15 17 42 30.0010000  0  6 25 14 15 18 22 29
  22601999.310     6766998.809 7   5272981.814 7
  20883094.130    -3932312.444 7  -3064140.380 8
  22933300.591     7405732.944 6   5770696.570 5
  24802209.653    -1013350.385 3
  22492165.810    -5897372.075 7  -4595353.735 6
  22359966.372    -3465821.719 6  -2700640.862 6
 94  2 15 17 43  0.0010000  0  6 25 14 15 18 22 29
  22619178.692     6857277.820 7   5343329.050 7
  20877008.903    -3964284.326 7  -3089053.546 8
  22952308.177     7505640.841 6   5848546.769 5
  24789368.200    -1080861.827 3        -0.48411
  22481149.442    -5955212.805 6  -4640424.440 6
  22352846.224    -3503264.561 7  -2729817.120 7
 94  2 15 17 43 30.0010000  0  6 25 14 15 18 22 29
  22636399.497     6947776.098 7   5413847.138 7
  20871003.403    -3995824.634 7  -3113630.417 8
  22971366.817     7605781.148 6   5926578.077 5
  24776512.825    -1148324.484 1    -52568.801 1
  22470209.380    -6012708.495 6  -4685226.289 6
  22345740.521    -3540622.400 7  -2758927.131 7
 94  2 15 17 44  0.0010000  0  5 25 14 15 22 29
  22653666.661     7038514.922 7   5484552.645 7
  20865087.130    -4026927.530 7  -3137866.447 8
  22990467.536     7706152.025 6   6004789.043 5
  22459339.950    -6069835.765 6  -4729741.021 6
  22338649.153    -3577882.769 7  -2787961.196 7
 94  2 15 17 44 30.0010000  0  6 25 14 15 18 22 29
  22670977.724     7129480.059 7   5555434.494 7
  20859248.692    -4057613.060 7  -3161777.264 8
  23009608.474     7806746.346 6   6083174.149 5
  24750867.122          -0.48913
  22448545.778    -6126579.630 6  -4773957.012 6
  22331574.646    -3615060.148 7  -2816930.576 7
 94  2 15 17 45  0.0010000  0  6 25 14 15 18 22 29
  22688334.466     7220665.541 7   5626488.071 7
  20853487.817    -4087891.261 7  -3185370.673 8
  23028790.919     7907567.504 6   6161735.960 5
  24738038.731      -67376.518 3        -0.03511
  22437823.513    -6182922.525 6  -4817860.533 6
  22324512.255    -3652156.369 7  -2845836.733 7
 94  2 15 17 45 30.0010000  0  6 25 14 15 18 22 29
  22705720.896     7312061.550 7   5697705.670 6
  20847801.419    -4117774.697 7  -3208656.473 8
  23048019.849     8008610.749 6   6240470.856 5
  24725219.138     -134734.079 2    -52486.444 1
  22427181.692    -6238845.428 6  -4861436.811 6
  22317466.622    -3689176.076 7  -2874683.273 6
 94  2 15 17 46  0.0010000  0  6 25 14 15 18 22 29
  22723150.497     7403645.502 7   5769069.716 7
  20842189.403    -4147267.089 7  -3231637.562 8
  23067292.536     8109868.911 6   6319373.219 5
  24712402.653     -202083.058 2   -104966.118 1
  22416621.208    -6294349.234 6  -4904686.512 6
  22310436.950    -3726131.916 7  -2903480.044 6
 94  2 15 17 46 30.0010000  0  5 25 14 15 22 29
  22740612.747     7495404.220 7   5840569.960 7
  20836652.114    -4176363.582 7  -3254310.160 8
  23086600.356     8211342.371 6   6398443.336 5
  22406133.739    -6349442.542 6  -4947616.340 6
  22303418.442    -3763028.101 7  -2932230.332 6
 94  2 15 17 47  0.0010000  0  5 25 14 15 22 29
  22758107.036     7587343.985 7   5912211.275 7
  20831195.724    -4205048.209 7  -3276661.814 8
  23105949.763     8313027.640 6   6477678.513 5
  22395724.927    -6404127.929 6  -4990228.327 6
  22296404.981    -3799855.152 7  -2960926.759 6
 94  2 15 17 47 30.0010000  0  5 25 14 15 22 29
  22775638.302     7679464.783 7   5983993.668 7
  20825817.169    -4233300.633 7  -3298676.696 8
  23125344.333     8414919.185 6   6557074.429 5
  22385395.411    -6458420.663 6  -5032534.340 6
  22289416.770    -3836608.750 7  -2989565.922 7
 94  2 15 17 48  0.0010000  0  5 25 14 15 22 29
  22793199.778     7771769.952 7   6055919.729 6
  20820530.724    -4261101.205 7  -3320339.484 8
  23144767.966     8517019.891 6   6636633.318 5
  22375137.630    -6512337.257 6  -5074547.238 6
  22282433.771    -3873273.328 7  -3018135.742 7
 94  2 15 17 48 30.0010000  0  6 25 14 15 18 22 29
  22810808.810     7864274.517 7   6128001.158 6
  20815327.942    -4288438.217 7  -3341641.067 8
  23164240.239     8619328.959 6   6716354.557 5
  24648362.692          -0.54613
  22364945.521    -6565886.399 7  -5116273.834 6
  22275475.966    -3909828.838 7  -3046620.552 7
 94  2 15 17 49  0.0010000  0  6 25 14 15 18 22 29
  22828446.497     7956981.833 7   6200240.547 6
  20810211.731    -4315303.060 7  -3362574.725 8
  23183749.802     8721837.236 6   6796231.032 5
  24635566.513      -67294.387 3        -0.30611
  22354823.888    -6619071.344 7  -5157716.630 6
  22268545.239    -3946268.569 7  -3075015.150 7
 94  2 15 17 49 30.0010000  0  6 25 14 15 18 22 29
  22846123.388     8049884.473 6   6272632.172 6
  20805194.528    -4341689.523 7  -3383135.623 8
  23203290.005     8824547.109 6   6876264.591 5
  24622748.161     -134595.394 2    -52442.642 1
  22344775.997    -6671882.704 6  -5198868.330 6
  22261633.810    -3982596.273 7  -3103322.458 7
 94  2 15 17 50  0.0010000  0  6 25 14 15 18 22 29
  22863841.653     8142981.203 7   6345175.020 6
  20800258.731    -4367607.797 7  -3403331.684 8
  23222871.708     8927454.562 6   6956452.090 5
  24609948.802     -201895.433 3   -104884.171 1
  22334803.927    -6724304.805 6  -5239716.722 6
  22254743.192    -4018811.099 7  -3131541.799 7
 94  2 15 17 50 30.0010000  0  6 25 14 15 18 22 29
  22881598.239     8236272.615 7   6417869.582 6
  20795412.185    -4393071.652 7  -3423173.654 8
  23242492.974     9030555.545 6   7036790.398 5
  24597145.450     -269179.173 3   -157312.986 1
  22324902.474    -6776312.573 6  -5280242.260 6
  22247870.013    -4054911.321 6  -3159671.852 7
 94  2 15 17 51  0.0010000  0  6 25 14 15 18 22 29
  22899382.927     8329752.634 6   6490711.099 6
  20790650.606    -4418092.245 7  -3442670.232 8
  23262151.692     9133854.358 6   7117282.871 5
  24584349.364     -336434.057 4   -209719.385 1
  22315089.278    -6827874.187 6  -5320420.147 6
  22241023.364    -4090902.062 7  -3187716.586 7
 94  2 15 17 51 30.0010000  0  6 25 14 15 18 22 29
  22917197.013     8423397.578 6   6563681.141 6
  20785973.271    -4442697.367 7  -3461843.073 8
  23281845.716     9237336.272 6   7197917.996 5
  24571554.661     -403661.002 5   -262103.947 1
  22305359.747    -6878996.430 7  -5360255.651 6
  22234188.856    -4126800.649 7  -3215689.512 7
 94  2 15 17 52  0.0010000  0  6 25 14 15 18 22 29
  22935054.622     8517222.800 6   6636791.641 6
  20781365.216    -4466890.176 7  -3480694.615 8
  23301570.083     9341005.092 6   7278698.788 4
  24558761.075     -470842.379 3
  22295724.755    -6929667.791 7  -5399739.825 6
  22227381.450    -4162592.138 7  -3243578.984 7
 94  2 15 17 52 30.0010000  0  6 25 14 15 18 22 29
  22952946.646     8611213.700 6   6710031.253 6
  20776843.685    -4490668.839 7  -3499223.462 8
  23321337.528     9444853.936 6   7359619.844 5
  24545992.356     -537999.203 4
  22286160.708    -6979896.120 6  -5438878.821 6
  22220590.614    -4198291.406 7  -3271396.591 7
 94  2 15 17 53  0.0010000  0  6 25 14 15 18 22 29
  22970858.099     8705361.401 6   6783393.020 6
  20772398.825    -4514016.708 7  -3517416.623 8
  23341130.192     9548877.760 6   7440677.255 5
  24533220.856     -605139.006 3
  22276685.841    -7029699.174 7  -5477686.394 6
  22213807.239    -4233908.834 7  -3299150.451 7
 94  2 15 17 53 30.0010000  0  6 25 14 15 18 22 29
  22988797.794     8799673.834 6   6856883.160 6
  20768042.552    -4536912.679 7  -3535257.649 8
  23360955.966     9653074.273 6   7521869.220 5
  24520436.474     -672256.191 3    -26147.73911
  22267284.950    -7079088.267 7  -5516171.394 6
  22207049.810    -4269447.690 7  -3326843.077 7
 94  2 15 17 54  0.0010000  0  6 25 14 15 18 22 29
  23006783.841     8894147.541 6   6930498.983 6
  20763773.396    -4559356.196 7  -3552746.133 8
  23380817.231     9757432.335 6   7603187.068 5
  24507675.489     -739360.761 4    -78436.962 1
  22257964.271    -7128057.432 6  -5554329.190 6
  22200298.880    -4304918.451 7  -3354482.628 7
 94  2 15 17 54 30.0010000  0  6 25 14 15 18 22 29
  23024795.927     8988785.429 7   7004242.720 6
  20759590.606    -4581322.471 7  -3569862.735 8
  23400703.146     9861957.981 6   7684635.513 5
  24494904.513     -806440.117 3   -130706.594 1
  22248731.466    -7176602.943 7  -5592156.880 7
  22193556.935    -4340311.285 6  -3382061.477 7
 94  2 15 17 55  0.0010000  0  6 25 14 15 18 22 29
  23042832.599     9083597.280 6   7078122.021 6
  20755499.849    -4602818.334 7  -3586612.761 8
  23420632.536     9966646.741 6   7766211.034 5
  24482138.497     -873478.150 3   -182944.109 2
  22239576.114    -7224719.948 7  -5629650.646 7
  22186841.536    -4375622.808 7  -3409576.934 7
 94  2 15 17 55 30.0010000  0  6 25 14 15 18 22 29
  23060914.067     9178591.415 7   7152143.370 6
  20751499.833    -4623848.646 7  -3603000.027 8
  23440584.052    10071497.904 6   7847913.149 5
  24469392.856     -940479.656 3   -235153.082 1
  22230500.310    -7272390.154 6  -5666796.241 7
  22180142.349    -4410848.821 7  -3437025.776 7
 94  2 15 17 56  0.0010000  0  6 25 14 15 18 22 29
  23079018.208     9273750.019 7   7226292.880 6
  20747585.989    -4644419.125 7  -3619028.987 8
  23460567.028    10176507.622 6   7929738.775 5
  24456655.583    -1007462.249 3   -287347.298 1
  22221516.474    -7319612.724 6  -5703593.035 7
  22173454.481    -4445974.294 7  -3464396.286 7
 94  2 15 17 56 30.0010000  0  6 25 14 15 18 22 29
  23097158.083     9369063.239 7   7300562.873 6
  20743758.700    -4664527.452 7  -3634697.835 8
  23480573.591    10281672.026 6   8011684.946 5
  24443911.310    -1074429.004 3   -339529.229 1
  22212616.349    -7366403.239 7  -5740053.198 7
  22166785.911    -4481000.011 7  -3491689.075 7
 94  2 15 17 57  0.0010000  0  6 25 14 15 18 22 29
  23115327.997     9464530.697 7   7374953.040 7
  20740020.067    -4684176.264 7  -3650008.597 8
  23500616.138    10386989.515 6   8093750.404 5
  24431167.544    -1141393.620 3   -391709.431 1
  22203790.606    -7412752.648 7  -5776169.595 7
  22160143.958    -4515923.316 7  -3518902.037 7
 94  2 15 17 57 30.0010000  0  6 25 14 15 18 22 29
  23133517.302     9560130.336 7   7449446.184 6
  20736371.630    -4703361.323 7  -3664958.009 8
  23520689.349    10492452.830 6   8175929.495 5
  24418421.747    -1208362.375 3   -443892.903 2
  22195052.630    -7458653.398 6  -5811936.383 7
  22153517.349    -4550738.441 7  -3546030.702 7
 94  2 15 17 58  0.0010000  0  6 25 14 15 18 22 29
  23151733.146     9655860.845 7   7524041.350 6
  20732805.521    -4722076.056 7  -3679540.932 8
  23540778.841    10598062.538 5   8258222.662 5
  24405681.888    -1275314.843 3   -496063.670 2
  22186406.591    -7504102.950 7  -5847351.611 7
  22146921.106    -4585430.575 7  -3573063.538 7
 94  2 15 17 58 30.0010000  0  5 25 14 15 22 29
  23169978.247     9751739.648 7   7598752.053 6
  20729338.872    -4740314.177 7  -3693752.469 8
  23560904.208    10703817.089 5   8340628.683 5
  22177848.419    -7549081.131 7  -5882399.530 7
  22140334.380    -4620016.486 7  -3600013.626 7
 94  2 15 17 59  0.0010000  0  5 25 14 15 22 29
  23188249.083     9847778.352 6   7673587.394 6
  20725957.450    -4758073.061 7  -3707590.559 8
  23581055.302    10809709.652 5   8423142.281 5
  22169382.411    -7593578.411 7  -5917072.733 7
  22133775.341    -4654498.823 7  -3626882.996 7
 94  2 15 17 59 30.0010000  0  5 25 14 15 22 29
  23206560.974     9943978.269 6   7748548.310 6
  20722668.778    -4775351.459 7  -3721054.255 8
  23601232.294    10915738.173 5   8505761.801 5
  22161009.802    -7637591.365 7  -5951368.519 7
  22127227.552    -4688883.659 7  -3653676.386 7
 94  2 15 18  0  0.0010000  0  5 25 14 15 22 29
  23224894.786    10040352.951 6   7823645.418 6
  20719471.833    -4792158.011 7  -3734150.276 8
  23621436.552    11021901.223 5   8588486.130 5
  22152722.700    -7681130.258 7  -5985294.906 7
  22120702.739    -4723174.161 7  -3680396.262 7
 94  2 15 18  0 30.0010000  0  5 25 14 15 22 29
  23243276.622    10136900.263 6   7898877.054 6
  20716363.067    -4808486.683 7  -3746873.924 8
  23641665.981    11128196.476 5   8671313.500 5
  22144525.544    -7724205.319 7  -6018859.868 7
  22114194.216    -4757379.393 7  -3707049.710 7
 94  2 15 18  1  0.0010000  0  5 25 14 15 22 29
  23261679.950    10233614.684 6   7974238.867 6
  20713345.427    -4824342.123 7  -3759228.819 7
  23661917.458    11234624.116 5   8754244.004 5
  22136412.286    -7766829.630 7  -6052073.605 7
  22107709.692    -4791472.979 7  -3733616.151 7
 94  2 15 18  1 30.0010000  0  6 25 14 15 18 22 29
  23280106.325    10330470.699 6   8049710.996 6
  20710419.747    -4839731.119 7  -3771220.243 7
  23682194.677    11341179.154 5   8837273.774 5
  24316611.966          -0.92413
  22128385.606    -7809009.990 7  -6084941.393 7
  22101242.825    -4825446.992 7  -3760089.405 7
 94  2 15 18  2  0.0010000  0  6 25 14 15 18 22 29
  23298556.185    10427460.373 6   8125287.325 6
  20707585.052    -4854638.289 7  -3782836.218 7
  23702491.099    11447857.093 5   8920399.317 5
  24303916.786      -66719.443 4
  22120447.755    -7850754.778 7  -6117469.795 7
  22094797.849    -4859297.347 7  -3786466.307 7
 94  2 15 18  2 30.0010000  0  6 25 14 15 18 22 29
  23317040.911    10524573.641 6   8200959.956 6
  20704838.646    -4869043.089 7  -3794060.743 7
  23722811.560    11554653.657 5   9003617.288 5
  24291231.372     -133377.129 4
  22112583.083    -7892046.384 7  -6149645.066 7
  22088384.028    -4893029.701 7  -3812751.250 7
 94  2 15 18  3  0.0010000  0  6 25 14 15 18 22 29
  23335543.435    10621811.411 6   8276729.591 6
  20702193.950    -4882938.969 7  -3804888.709 7
  23743157.536    11661570.674 5   9086929.123 5
  24278558.755     -199978.204 5    -25944.59111
  22104822.099    -7932854.882 7  -6181443.877 7
  22081988.942    -4926635.747 7  -3838937.768 7
 94  2 15 18  3 30.0010000  0  6 25 14 15 18 22 29
  23354075.130    10719170.620 6   8352593.857 6
  20699651.231    -4896313.922 7  -3815310.763 7
  23763524.466    11768603.617 5   9170331.308 5
  24265892.911     -266554.968 5    -77822.501 1
  22097149.091    -7973163.501 7  -6212853.180 7
  22075615.028    -4960133.969 7  -3865040.275 7
 94  2 15 18  4  0.0010000  0  6 25 14 15 18 22 29
  23372628.481    10816662.341 6   8428561.383 6
  20697202.310    -4909166.406 7  -3825325.689 7
  23783919.427    11875750.703 5   9253822.439 5
  24253218.935     -333128.469 5   -129697.876 1
  22089580.231    -8012955.769 7  -6243860.132 7
  22069254.395    -4993532.982 7  -3891065.479 7
 94  2 15 18  4 30.0010000  0  6 25 14 15 18 22 29
  23391208.450    10914293.334 6   8504637.434 6
  20694854.692    -4921517.886 7  -3834950.216 7
  23804331.028    11983007.731 5   9337399.201 5
  24240553.622     -399705.652 5   -181576.210 1
  22082103.567    -8052223.318 7  -6274458.219 7
  22062921.958    -5026834.022 7  -3917014.324 7
 94  2 15 18  5  0.0010000  0  6 25 14 15 18 22 29
  23409809.231    11012064.577 6   8580822.767 6
  20692594.872    -4933384.497 7  -3844196.938 7
  23824753.817    12090370.335 5   9421058.265 5
  24227882.864     -466280.659 4   -233452.771 2
  22074730.169    -8090985.596 7  -6304662.582 7
  22056601.802    -5060038.479 7  -3942887.929 7
 94  2 15 18  5 30.0010000  0  6 25 14 15 18 22 29
  23428442.661    11109971.442 6   8657113.797 6
  20690429.341    -4944772.316 7  -3853070.569 8
  23845212.458    12197831.182 5   9504793.895 4
  24215209.966     -532839.049 3   -285316.427 2
  22067448.122    -8129255.551 7  -6334483.313 7
  22050301.974    -5093155.874 7  -3968693.684 7
 94  2 15 18  6  0.0010000  0  6 25 14 15 18 22 29
  23447093.349    11208004.061 6   8733502.792 6
  20688354.099    -4955676.680 7  -3861567.485 7
  23865679.810    12305387.120 5   9588603.590 5
  24202557.497     -599363.025 4   -337153.273 3
  22060259.419    -8167036.352 7  -6363922.888 7
  22044015.364    -5126183.379 7  -3994429.398 7
 94  2 15 18  6 30.0010000  0  6 25 14 15 18 22 29
  23465776.036    11306159.924 6   8809987.813 6
  20686372.036    -4966087.216 7  -3869679.592 8
  23886162.161    12413035.535 6   9672485.328 5
  24189913.450     -665845.313 4   -388957.592 3
  22053162.474    -8204326.573 7  -6392980.202 7
  22037751.138    -5159114.069 7  -4020089.671 7
 94  2 15 18  7  0.0010000  0  6 25 14 15 18 22 29
  23484474.130    11404427.710 6   8886560.052 6
  20684490.583    -4975983.520 7  -3877391.014 8
  23906665.208    12520774.465 6   9756437.621 4
  24177265.950     -732284.574 3   -440728.415 2
  22046162.231    -8241115.594 7  -6421646.956 7
  22031501.435    -5191944.014 7  -4045671.448 7
 94  2 15 18  7 30.0010000  0  6 25 14 15 18 22 29
  23503189.505    11502796.900 6   8963211.300 6
  20682707.950    -4985352.968 7  -3884691.887 8
  23927182.317    12628596.017 5   9840454.278 3
  24164614.958     -798698.025 3   -492479.192 4
  22039255.028    -8277393.905 7  -6449915.754 7
  22025275.169    -5224673.379 7  -4071174.849 7
 94  2 15 18  8  0.0010000  0  6 25 14 15 18 22 29
  23521936.583    11601282.291 6   9039953.103 6
  20681030.513    -4994178.434 7  -3891568.890 8
  23947715.802    12736506.074 5   9924539.917 4
  24152001.091     -865083.283 4   -544207.949 3
  22032450.013    -8313156.923 7  -6477783.028 7
  22019068.724    -5257278.325 7  -4096581.311 7
 94  2 15 18  8 30.0010000  0  6 25 14 15 18 22 29
  23540703.614    11699888.327 6   9116788.869 6
  20679447.802    -5002472.226 7  -3898031.593 8
  23968267.849    12844500.280 5  10008691.080 3
  24139357.153     -931440.184 3   -595914.636 5
  22025739.802    -8348421.519 7  -6505261.914 7
  22012892.849    -5289757.527 7  -4121889.791 7
 94  2 15 18  9  0.0010000  0  6 25 14 15 18 22 29
  23559482.747    11798610.811 6   9193715.413 5
  20677968.294    -5010246.493 7  -3904089.477 8
  23988830.981    12952571.839 5  10092902.558 3
  24126749.583     -997761.023 3   -647593.153 5
  22019126.067    -8383195.818 7  -6532358.726 7
  22006730.606    -5322120.766 7  -4147107.898 7
 94  2 15 18  9 30.0010000  0  6 25 14 15 18 22 29
  23578293.708    11897455.852 6   9270737.471 5
  20676589.161    -5017503.780 7  -3909744.519 8
  24009408.411    13060719.157 5  10177173.024 3
  24114135.239    -1064038.231 4   -699237.715 5
  22012600.388    -8417476.692 7  -6559071.063 7
  22000593.013    -5354365.628 7  -4172233.755 7
 94  2 15 18 10  0.0010000  0  6 25 14 15 18 22 29
  23597133.958    11996425.644 6   9347856.701 5
  20675304.817    -5024247.989 7  -3914999.760 8
  24030007.685    13168946.480 5  10261505.888 2
  24101531.849    -1130262.259 5   -750840.852 5
  22006174.583    -8451251.148 7  -6585388.793 7
  21994482.724    -5386484.904 7  -4197261.774 7
 94  2 15 18 10 30.0010000  0  6 25 14 15 18 22 29
  23615981.114    12095501.170 6   9425058.341 5
  20674116.458    -5030502.732 7  -3919873.608 8
  24050615.614    13277241.135 5  10345891.197 4
  24088936.638    -1196447.422 5   -802413.692 5
  21999843.521    -8484509.165 7  -6611304.099 7
  21988387.067    -5418500.727 7  -4222209.180 7
 94  2 15 18 11  0.0010000  0  6 25 14 15 18 22 29
  23634859.872    12194691.302 6   9502349.247 6
  20673018.903    -5036261.455 7  -3924360.926 8
  24071236.583    13385603.139 5  10430328.963 4
  24076343.466    -1262601.831 5   -853962.554 5
  21993617.435    -8517222.087 7  -6636794.649 7
  21982315.489    -5450412.904 7  -4247075.826 7
 94  2 15 18 11 30.0010000  0  6 25 14 15 18 22 29
  23653752.692    12293980.886 6   9579717.696 5
  20672023.669    -5041511.168 7  -3928451.625 7
  24091877.028    13494031.031 5  10514818.087 4
  24063758.622    -1328743.422 5   -905501.432 5
  21987497.145    -8549393.304 7  -6661863.086 7
  21976263.599    -5482213.771 7  -4271855.722 8
 94  2 15 18 12  0.0010000  0  6 25 14 15 18 22 29
  23672666.966    12393370.776 6   9657164.283 5
  20671115.489    -5046258.991 7  -3932151.235 7
  24112512.427    13602525.182 5  10599358.836 4
  24051176.130    -1394875.109 5   -957032.577 5
  21981480.263    -8581033.064 7  -6686517.414 7
  21970233.981    -5513898.864 7  -4296545.401 8
 94  2 15 18 12 30.0010000  0  6 25 14 15 18 22 29
  23691597.161    12492858.503 6   9734687.095 5
  20670308.817    -5050496.336 7  -3935453.074 8
  24133174.458    13711081.681 5  10683948.156 5
  24038596.247    -1460985.444 5  -1008547.131 4
  21975552.927    -8612148.652 7  -6710763.290 7
  21964229.380    -5545469.732 7  -4321146.074 7
 94  2 15 18 13  0.0010000  0  6 25 14 15 18 22 29
  23710544.700    12592433.054 6   9812277.570 6
  20669607.395    -5054192.687 7  -3938333.366 8
  24153831.325    13819702.638 5  10768587.706 4
  24026023.950    -1527060.086 6  -1060033.825 4
  21969733.349    -8642745.460 7  -6734604.931 7
  21958243.958    -5576908.526 7  -4345643.832 7
 94  2 15 18 13 30.0010000  0  6 25 14 15 18 22 29
  23729504.653    12692067.152 6   9889914.431 6
  20669008.435    -5057351.496 7  -3940794.797 7
  24174524.778    13928376.666 5  10853268.630 3
  24013458.130    -1593095.847 6  -1111490.230 4
  21964006.544    -8672834.014 7  -6758050.529 7
  21952286.075    -5608224.121 7  -4370045.612 7
 94  2 15 18 14  0.0010000  0  6 25 14 15 18 22 29
  23748478.286    12791777.969 6   9967611.059 6
  20668507.685    -5059974.850 7  -3942838.984 7
  24195213.271    14037102.728 5  10937990.065 4
  24000897.911    -1659066.407 6  -1162895.835 4
  21958381.224    -8702395.670 7  -6781085.555 7
  21946350.802    -5639416.959 7  -4394351.719 8
 94  2 15 18 14 30.0010000  0  6 25 14 15 18 22 29
  23767466.958    12891568.184 6  10045369.596 5
  20668110.630    -5062049.829 7  -3944455.871 7
  24215921.442    14145879.020 5  11022750.670 4
  23988361.239    -1724967.968 6  -1214247.669 5
  21952864.810    -8731407.601 7  -6803692.218 7
  21940434.685    -5670488.367 7  -4418563.205 8
 94  2 15 18 15  0.0010000  0  6 25 14 15 18 22 29
  23786479.075    12991435.579 6  10123188.273 6
  20667819.177    -5063592.692 7  -3945658.123 7
  24236622.786    14254694.848 5  11107542.075 4
  23975827.255    -1790825.100 6  -1265564.872 4
  21947446.763    -8759868.662 7  -6825869.647 7
  21934546.380    -5701448.266 7  -4442687.797 8
 94  2 15 18 15 30.0010000  0  6 25 14 15 18 22 29
  23805504.356    13091409.095 6  10201089.619 6
  20667624.466    -5064615.844 7  -3946455.406 7
  24257334.505    14363550.874 5  11192364.797 3
  23963303.208    -1856631.830 6  -1316842.810 4
  21942133.771    -8787778.024 7  -6847617.185 7
  21928676.778    -5732300.314 7  -4466728.355 8
 94  2 15 18 16  0.0010000  0  6 25 14 15 18 22 29
  23824544.575    13191498.652 6  10279081.413 6
  20667528.583    -5065122.567 7  -3946850.278 7
  24278056.653    14472446.844 4  11277218.678 2
  23950794.052    -1922400.613 6  -1368091.181 5
  21936925.614    -8815144.717 7  -6868941.860 7
  21922825.771    -5763034.341 7  -4490676.964 8
 94  2 15 18 16 30.0010000  0  6 25 14 15 18 22 29
  23843611.770    13291691.017 6  10357153.279 6
  20667532.122    -5065097.951 7  -3946831.123 7
  24298778.239    14581380.000 3  11362101.518 3
  23938283.864    -1988150.954 6  -1419325.191 5
  21931820.497    -8841978.965 7  -6889851.651 7
  21916998.239    -5793657.023 7  -4514538.802 8
 94  2 15 18 17  0.0010000  0  6 25 14 15 18 22 29
  23862696.138    13391981.331 6  10435301.495 5
  20667638.122    -5064536.504 7  -3946393.640 7
  24319513.880    14690350.381 4  11447013.325 3
  23925772.302    -2053875.904 5  -1470539.387 5
  21926813.591    -8868293.093 7  -6910356.163 7
  21911191.567    -5824163.242 7  -4538309.888 8
 94  2 15 18 17 30.0010000  0  6 25 14 15 18 22 29
  23881803.583    13492365.783 6  10513523.058 5
  20667848.622    -5063434.059 7  -3945534.607 7
  24340267.700    14799354.848 4  11531951.733 1
  23913274.349    -2119569.190 5  -1521728.935 5
  21921906.122    -8894088.709 7  -6930456.639 7
  21905410.661    -5854552.978 7  -4561990.203 8
 94  2 15 18 18  0.0010000  0  6 25 14 15 18 22 29
  23900915.138    13592826.964 6  10591804.396 5
  20668164.700    -5061784.487 7  -3944249.246 7
  24361009.349    14908389.515 4  11616913.673 2
  23900774.583    -2185232.742 5  -1572895.302 5
  21917095.450    -8919350.449 7  -6950141.093 7
  21899649.653    -5884835.927 7  -4585587.307 8
 94  2 15 18 18 30.0010000  0  6 25 14 15 18 22 29
  23920046.544    13693365.859 5  10670146.327 5
  20668579.599    -5059579.495 7  -3942531.087 7
  24381762.646    15017446.834 4  11701893.274 4
  23888291.513    -2250850.141 5  -1624025.709 5
  21912395.411    -8944062.022 7  -6969396.865 7
  21893903.575    -5915019.629 7  -4609107.086 8
 94  2 15 18 19  0.0010000  0  6 25 14 15 18 22 29
  23939193.638    13793992.634 5  10748556.706 5
  20669106.981    -5056827.681 7  -3940386.830 7
  24402526.591    15126526.882 5  11786890.560 4
  23875813.724    -2316410.792 5  -1675111.904 5
  21907796.958    -8968205.881 7  -6988210.252 7
  21888184.731    -5945080.582 7  -4632531.206 8
 94  2 15 18 19 30.0010000  0  6 25 14 15 18 22 29
  23958365.083    13894709.041 6  10827036.926 5
  20669733.942    -5053528.551 7  -3937816.099 7
  24423290.474    15235625.040 4  11871901.935 3
  23863349.794    -2381918.259 5  -1726156.634 5
  21903319.606    -8991766.367 7  -7006569.049 8
  21882485.739    -5975026.040 7  -4655865.341 8
 94  2 15 18 20  0.0010000  0  6 25 14 15 18 22 29
  23977552.669    13995516.973 6  10905588.450 5
  20670469.833    -5049664.997 7  -3934805.562 7
  24444052.271    15344745.300 5  11956930.559 4
  23850896.677    -2447366.379 5  -1777155.103 5
  21898946.185    -9014726.777 7  -7024460.261 8
  21876812.583    -6004839.423 7  -4679096.558 8
 94  2 15 18 20 30.0010000  0  6 25 14 15 18 22 29
  23996745.739    14096416.587 5  10984211.433 4
  20671310.849    -5045243.148 7  -3931359.986 8
  24464819.239    15453878.839 5  12041969.531 4
  23838449.810    -2512765.896 5  -1828115.704 5
  21894686.880    -9037105.202 7  -7041897.985 8
  21871165.286    -6034506.508 7  -4702213.775 8
 94  2 15 18 21  0.0010000  0  6 25 14 15 18 22 29
  24015963.669    14197405.536 5  11062904.022 4
  20672255.505    -5040276.186 7  -3927489.640 7
  24485579.411    15563028.157 5  12127020.757 2
  23826006.021    -2578118.379 5  -1879039.684 4
  21890544.567    -9058913.377 7  -7058891.366 8
  21865547.505    -6064025.253 7  -4725215.395 8
 94  2 15 18 21 30.0010000  0  6 25 14 15 18 22 29
  24035203.896    14298481.671 6  11141664.551 5
  20673306.567    -5034759.813 7  -3923191.188 7
  24506363.255    15672194.742 5  12212085.450 4
  23813588.872    -2643419.662 5  -1929923.740 5
  21886492.708    -9080155.722 7  -7075443.818 8
  21859960.302    -6093407.252 7  -4748110.456 8
 94  2 15 18 22  0.0010000  0  6 25 14 15 18 22 29
  24054449.224    14399633.987 5  11220484.456 4
  20674456.841    -5028700.438 7  -3918469.620 7
  24527138.130    15781369.867 5  12297156.801 5
  23801167.911    -2708679.332 5  -1980775.360 5
  21882559.450    -9100852.078 7  -7091570.819 8
  21854394.888    -6122643.944 7  -4770892.305 8
 94  2 15 18 22 30.0010000  0  6 25 14 15 18 22 29
  24073710.958    14500861.947 5  11299363.291 5
  20675709.833    -5022112.872 7  -3913336.468 7
  24547923.138    15890547.869 5  12382230.413 4
  23788753.739    -2773893.710 5  -2031591.704 5
  21878719.192    -9121019.877 7  -7107285.957 8
  21848858.677    -6151743.878 7  -4793567.582 8
 94  2 15 18 23  0.0010000  0  6 25 14 15 18 22 29
  24092973.919    14602144.563 5  11378284.722 5
  20677069.153    -5014998.415 7  -3907792.743 7
  24568686.677    15999719.847 5  12467299.333 4
  23776361.763    -2839074.324 5  -2082381.741 5
  21874986.200    -9140648.200 7  -7122580.717 8
  21843341.763    -6180717.676 7  -4816144.572 8
 94  2 15 18 23 30.0010000  0  6 25 14 15 18 22 29
  24112264.169    14703486.324 5  11457252.246 5
  20678524.942    -5007328.791 7  -3901816.426 7
  24589461.677    16108886.042 5  12552363.724 3
  23763954.747    -2904219.486 5  -2133144.159 4
  21871364.192    -9159713.732 7  -7137436.946 8
  21837854.896    -6209557.117 7  -4838616.860 8
 94  2 15 18 24  0.0010000  0  6 25 14 15 18 22 29
  24131565.239    14804897.834 5  11536274.095 5
  20680093.849    -4999086.456 7  -3895393.839 7
  24610232.763    16218054.654 5  12637429.986 4
  23751572.153    -2969316.252 5  -2183868.857 5
  21867837.685    -9178204.383 7  -7151845.230 8
  21832397.021    -6238247.444 7  -4860972.957 8
 94  2 15 18 24 30.0010000  0  6 25 14 15 18 22 29
  24150877.888    14906374.547 5  11615346.755 5
  20681773.403    -4990276.851 7  -3888529.213 7
  24631014.247    16327217.199 5  12722491.559 4
  23739185.325    -3034373.995 5  -2234563.169 5
  21864428.981    -9196111.193 7  -7165798.569 8
  21826962.286    -6266807.580 7  -4883227.611 8
 94  2 15 18 25  0.0010000  0  7 25 14 15 18 22 29 19
  24170197.341    15007902.290 5  11694459.188 5
  20683554.716    -4980886.324 7  -3881211.930 7
  24651784.208    16436364.880 5  12807541.562 2
  23726815.036    -3099401.245 5  -2285233.722 5
  21861141.255    -9213424.688 7  -7179289.575 8
  21821549.911    -6295246.430 7  -4905387.752 8
  25211438.192      -42159.87013
 94  2 15 18 25 30.0010000  0  7 25 14 15 18 22 29 19
  24189533.028    15109497.038 6  11773623.821 5
  20685456.575    -4970909.931 7  -3873438.131 7
  24672553.989    16545507.212 5  12892587.381 2
  23714448.442    -3164380.093 5  -2335866.544 5
  21857954.489    -9230139.037 7  -7192313.719 8
  21816163.888    -6323559.011 7  -4927449.495 8
  25195417.036     -126351.502 2        -0.19112
 94  2 15 18 26  0.0010000  0  7 25 14 15 18 22 29 19
  24208874.028    15211138.219 6  11852824.635 5
  20687461.606    -4960378.652 7  -3865231.952 7
  24693312.060    16654630.140 4  12977618.062 2
  23702094.247    -3229325.200 5  -2386473.114 5
  21854886.192    -9246272.083 7  -7204884.904 8
  21810796.724    -6351754.745 7  -4949420.206 8
  25179420.075     -210396.172 2    -65489.455 1
 94  2 15 18 26 30.0010000  0  7 25 14 15 18 22 29 19
  24228227.755    15312835.651 6  11932069.273 6
  20689566.778    -4949306.197 7  -3856604.077 7
  24714061.786    16763731.899 3  13062632.239 1
  23689738.497    -3294230.771 5  -2437048.863 5
  21851930.325    -9261809.233 7  -7216991.753 8
  21805453.747    -6379828.286 7  -4971295.685 8
  25163460.661     -294301.410 3   -130870.049 4
 94  2 15 18 27  0.0010000  0  7 25 14 15 18 22 29 19
  24247585.536    15414585.933 5  12011355.083 5
  20691772.349    -4937699.360 7  -3847559.805 7
  24734829.692    16872810.129 4  13147628.086 1
  23677399.513    -3359079.365 6  -2487580.197 5
  21849085.731    -9276758.215 7  -7228640.281 8
  21800135.521    -6407777.555 7  -4993074.334 8
  25147526.052     -378058.549 4   -196135.203 4
 94  2 15 18 27 30.0010000  0  7 25 14 15 18 22 29 19
  24266960.466    15516391.774 5  12090684.220 5
  20694080.708    -4925587.868 7  -3838122.297 7
  24755583.528    16981855.289 3  13232598.152 1
  23665075.567    -3423873.189 6  -2538068.864 5
  21846342.177    -9291137.305 7  -7239844.734 8
  21794843.130    -6435605.471 7  -5014758.427 8
  25131615.060     -461671.839 4   -261288.330 2
 94  2 15 18 28  0.0010000  0  7 25 14 15 18 22 29 19
  24286338.669    15618257.970 5  12170060.356 5
  20696485.575    -4912955.345 7  -3828278.797 7
  24776329.005    17090869.252 3  13317544.000 1
  23652753.771    -3488596.640 5  -2588502.703 5
  21843715.544    -9304948.881 7  -7250606.975 8
  21789576.872    -6463292.945 7  -5036333.091 8
  25115733.021     -545137.624 3   -326326.430 2
 94  2 15 18 28 30.0010000  0  7 25 14 15 18 22 29 19
  24305737.630    15720184.032 5  12249483.116 5
  20698993.872    -4899778.124 7  -3818010.849 7
  24797067.778    17199853.124 3  13402466.305 1
  23640450.661    -3553244.625 5  -2638877.726 5
  21841197.888    -9318188.814 7  -7260923.780 8
  21784329.325    -6490830.842 7  -5057791.205 8
  25099877.575     -628434.795 3   -391233.193 3
 94  2 15 18 29  0.0010000  0  7 25 14 15 18 22 29 19
  24325144.958    15822154.687 5  12328940.673 5
  20701608.474    -4886031.215 8  -3807298.998 7
  24817800.122    17308806.257 3  13487364.701 2
  23628165.927    -3617826.884 5  -2689201.517 6
  21838787.927    -9330863.335 7  -7270800.014 8
  21779121.239    -6518211.533 7  -5079126.812 8
  25084071.567     -711551.971 4   -455999.674 3
 94  2 15 18 29 30.0010000  0  6 25 14 18 22 29 19
  24344552.817    15924167.905 5  12408431.401 5
  20704333.731    -4871703.853 7  -3796134.837 7
  23615882.872    -3682350.040 5  -2739479.232 5
  21836487.106    -9342963.451 7  -7280228.659 8
  21773940.341    -6545425.358 7  -5100332.389 8
  25068271.091     -794502.157 3   -520636.078 2
 94  2 15 18 30  0.0010000  0  6 25 14 18 22 29 19
  24363978.052    16026213.515 5  12487947.345 5
  20707173.239    -4856780.452 7  -3784506.224 7
  23603617.919    -3746816.659 5  -2789712.890 5
  21834296.091    -9354472.781 7  -7289196.946 8
  21768794.567    -6572472.130 7  -5121407.804 8
  25052514.427     -877282.302 4   -585140.009 2
 94  2 15 18 30 30.0010000  0  6 25 14 18 22 29 19
  24383403.263    16128293.536 5  12567490.106 5
  20710123.997    -4841269.462 7  -3772419.768 7
  23591361.778    -3811234.105 5  -2839908.236 5
  21832217.583    -9365376.410 7  -7297693.243 8
  21763678.567    -6599370.216 7  -5142367.352 8
  25036798.810     -959898.539 5   -649516.252 3
 94  2 15 18 31  0.0010000  0  7 25 14 15 18 22 29 19
  24402838.669    16230417.083 5  12647066.738 5
  20713189.380    -4825184.252 7  -3759885.848 7
  24900664.880       54396.13515
  23579112.903    -3875586.253 5  -2890052.723 5
  21830258.013    -9375680.575 7  -7305722.436 8
  21758586.778    -6626122.163 7  -5163213.041 8
  25021109.052    -1042354.005 5   -713767.165 3
 94  2 15 18 31 30.0010000  0  7 25 14 15 18 22 29 19
  24422272.091    16332589.293 5  12726681.334 4
  20716353.661    -4808542.717 7  -3746918.439 7
  24921344.817      163151.880 3     42367.50713
  23566883.075    -3939869.687 5  -2940143.638 5
  21828406.310    -9385388.295 7  -7313286.883 8
  21753521.497    -6652744.598 7  -5183957.799 8
  25005449.138    -1124653.788 5   -777896.784 1
 94  2 15 18 32  0.0010000  0  7 25 14 15 18 22 29 19
  24441730.411    16434818.852 5  12806340.645 5
  20719631.513    -4791330.067 8  -3733506.012 7
  24942035.544      271863.337 4    127077.557 2
  23554660.817    -4004080.151 5  -2990177.699 5
  21826675.825    -9394493.574 7  -7320381.893 8
  21748479.255    -6679224.737 7  -5204591.684 8
  24989821.349    -1206775.309 4   -841887.526 3
 94  2 15 18 32 30.0010000  0  7 25 14 15 18 22 29 19
  24461196.685    16537112.153 5  12886049.588 4
  20723014.169    -4773545.179 7  -3719647.681 7
  24962729.481      380527.740 4    211750.938 2
  23542453.989    -4068219.550 5  -3040156.404 4
  21825058.083    -9403007.068 7  -7327015.762 8
  21743467.552    -6705560.774 7  -5225113.278 8
  24974226.325    -1288711.007 3   -905733.451 4
 94  2 15 18 33  0.0010000  0  7 25 14 15 18 22 29 19
  24480673.646    16639463.014 5  12965803.406 4
  20726506.942    -4755183.337 7  -3705339.782 7
  24983405.122      489137.888 4    296382.091 2
  23530263.927    -4132292.870 5  -3090083.627 5
  21823550.724    -9410945.172 7  -7333201.275 8
  21738484.536    -6731746.595 7  -5245517.810 8
  24958675.114    -1370462.526 5   -969435.925 2
 94  2 15 18 33 30.0010000  0  7 25 14 15 18 22 29 19
  24500166.216    16741872.909 5  13045603.239 4
  20730114.864    -4736225.344 7  -3690567.342 7
  25004058.325      597693.229 4    380970.529 2
  23518080.106    -4196302.142 5  -3139960.959 4
  21822152.685    -9418288.244 7  -7338923.120 8
  21733533.122    -6757774.844 7  -5265799.557 8
  24943155.481    -1452028.673 5  -1032993.982 1
 94  2 15 18 34  0.0010000  0  7 25 14 15 18 22 29 19
  24519662.153    16844324.347 5  13125435.400 3
  20733835.411    -4716667.526 7  -3675327.508 7
  25024670.771      706190.669 2    465513.799 2
  23505911.247    -4260248.061 6  -3189788.921 4
  21820866.364    -9425039.526 7  -7344183.848 8
  21728616.216    -6783640.352 7  -5285954.488 8
  24927661.911    -1533418.568 4  -1096414.649 2
 94  2 15 18 34 30.0010000  0  6 25 14 18 22 29 19
  24539154.755    16946807.334 5  13205292.157 4
  20737669.396    -4696531.751 7  -3659637.320 7
  23493757.513    -4324133.066 6  -3239569.410 5
  21819697.763    -9431198.323 7  -7348982.911 8
  21723718.544    -6809354.111 7  -5305991.186 8
  24912206.583    -1614648.386 3  -1159710.542 2
 94  2 15 18 35  0.0010000  0  6 25 14 15 18 22 29
  24558659.380    17049312.600 5  13285166.277 4
  20741606.755    -4675823.456 7  -3643501.005 7
  25065954.388          -0.14113
  23481616.091    -4387954.410 6  -3289300.272 4
  21818640.724    -9436751.061 7  -7353309.707 8
  21718850.474    -6834919.161 7  -5325912.007 8
 94  2 15 18 35 30.0010000  0  7 25 14 15 18 22 29 19
  24578170.997    17151836.401 5  13365054.874 5
  20745657.599    -4654548.158 7  -3626922.873 7
  25086568.200      108312.985 3
  23469480.427    -4451710.890 6  -3338980.645 5
  21817702.591    -9441681.750 7  -7357151.776 8
  21714017.989    -6860337.765 7  -5345718.699 8
  24881361.255          -0.97813
 94  2 15 18 36  0.0010000  0  7 25 14 15 18 22 29 19
  24597687.708    17254376.311 5  13444956.029 5
  20749809.442    -4632727.143 7  -3609919.509 7
  25107160.560      216554.875 3     42163.92612
  23457355.489    -4515419.794 6  -3388623.907 5
  21816882.700    -9445984.570 7  -7360504.609 8
  21709204.919    -6885622.936 7  -5365421.427 8
  24866004.591      -80779.196 5        -0.19813
 94  2 15 18 36 30.0010000  0  7 25 14 15 18 22 29 19
  24617211.606    17356952.126 5  13524885.096 5
  20754066.146    -4610356.624 7  -3592487.949 7
  25127749.810      324723.813 4    126451.172 2
  23445240.356    -4579080.659 6  -3438229.768 5
  21816183.200    -9449651.304 7  -7363361.791 8
  21704417.692    -6910772.704 7  -5385018.644 8
  24850666.169     -161381.981 5    -62807.440 3
 94  2 15 18 37  0.0010000  0  7 25 14 15 18 22 29 19
  24636732.763    17459572.719 5  13604849.056 5
  20758434.536    -4587412.067 7  -3574609.096 7
  25148318.786      432816.473 5    210679.016 3
  23433136.864    -4642680.206 6  -3487787.827 5
  21815604.771    -9452682.501 7  -7365723.770 8
  21699661.442    -6935777.556 7  -5404502.943 8
  24835360.935     -241783.772 5   -125458.065 4
 94  2 15 18 37 30.0010000  0  7 25 14 15 18 22 29 19
  24656271.966    17562243.558 5  13684852.189 5
  20762911.192    -4563885.580 7  -3556276.786 7
  25168877.786      540832.546 5    294847.204 3
  23421047.075    -4706221.717 6  -3537300.673 5
  21815150.942    -9455085.675 7  -7367596.353 8
  21694931.919    -6960625.800 7  -5423865.195 8
  24820102.614     -321957.236 4   -187930.785 2
 94  2 15 18 38  0.0010000  0  7 25 14 15 18 22 29 19
  24675816.560    17664959.594 5  13764890.541 5
  20767500.372    -4539775.520 7  -3537489.746 7
  25189407.700      648766.073 4    378951.102 3
  23408965.169    -4769702.962 6  -3586766.539 5
  21814809.411    -9456882.316 7  -7368996.331 8
  21690233.481    -6985311.550 7  -5443100.829 8
  24804889.755     -401914.771 5   -250235.234 4
 94  2 15 18 38 30.0010000  0  7 25 14 15 18 22 29 19
  24695370.872    17767712.037 5  13844957.284 5
  20772201.317    -4515065.946 7  -3518235.546 7
  25209927.435      756619.187 3    462992.309 3
  23396902.013    -4833110.017 6  -3636174.591 5
  21814580.677    -9458089.858 7  -7369937.261 8
  21685568.606    -7009824.642 7  -5462201.949 8
  24789714.645     -481662.501 5   -312376.242 4
 94  2 15 18 39  0.0010000  0  6 25 14 18 22 29 19
  24714928.497    17870480.753 5  13925036.700 4
  20777016.966    -4489758.655 7  -3498515.595 7
  23384852.075    -4896441.095 6  -3685523.452 5
  21814459.247    -9458712.847 7  -7370422.697 8
  21680940.724    -7034168.683 7  -5481171.318 8
  24774573.997     -561209.706 5   -374361.009 5
 94  2 15 18 39 30.0020000  0  6 25 14 18 22 29 19
  24734479.447    17973255.990 5  14005121.191 4
  20781940.838    -4463870.868 7  -3478343.315 7
  23372810.080    -4959705.857 5  -3734820.602 5
  21814455.814    -9458751.384 7  -7370452.707 8
  21676334.064    -7058355.474 7  -5500018.162 8
  24759468.697     -640586.766 5   -436213.165 5
 94  2 15 18 40  0.0020000  0  6 25 14 18 22 29 19
  24754038.221    18076019.113 5  14085196.221 3
  20786979.682    -4437403.436 7  -3457719.353 7
  23360784.064    -5022888.885 5  -3784054.089 5
  21814557.244    -9458208.105 7  -7370029.363 8
  21671758.002    -7082390.044 7  -5518746.388 8
  24744401.244     -719801.798 5   -497939.079 5
 94  2 15 18 40 30.0020000  0  6 25 14 18 22 29 19
  24773592.783    18178771.551 4  14165262.921 3
  20792126.588    -4410358.969 7  -3436645.761 7
  23348775.439    -5085995.183 5  -3833227.756 5
  21814769.783    -9457066.590 7  -7369139.858 8
  21667218.111    -7106274.445 7  -5537357.595 8
  24729353.799     -798848.992 5   -559534.248 3
 94  2 15 18 41  0.0020000  0  6 25 14 18 22 29 19
  24793149.408    18281526.041 3  14245331.205 3
  20797384.346    -4382736.598 7  -3415121.846 7
  23336777.939    -5149018.583 5  -3882336.849 6
  21815106.619    -9455317.387 7  -7367776.826 8
  21662700.127    -7129997.666 7  -5555843.210 8
  24714348.932     -877720.849 5   -620992.793 5
 94  2 15 18 41 30.0020000  0  6 25 14 18 22 29 19
  24812708.338    18384305.542 3  14325418.950 4
  20802748.096    -4354535.664 7  -3393147.116 7
  23324804.369    -5211956.210 5  -3931379.100 6
  21815553.510    -9452954.081 7  -7365935.255 8
  21658219.924    -7153550.640 7  -5574196.165 8
  24699376.236     -956404.407 4   -682304.606 5
 94  2 15 18 42  0.0020000  0  7 25 14 15 18 22 29 19
  24832276.533    18487124.053 4  14405537.133 4
  20808223.018    -4325753.244 7  -3370719.273 7
  25353121.510       53591.29913
  23312846.447    -5274813.889 6  -3980359.061 6
  21816123.760    -9449973.560 7  -7363612.776 8
  21653770.814    -7176929.980 7  -5592413.832 8
  24684433.908    -1034875.437 3   -743450.870 5
 94  2 15 18 42 30.0020000  0  6 25 14 18 22 29 19
  24851858.080    18589987.377 4  14485690.241 4
  20813810.510    -4296409.746 7  -3347854.229 7
  23300898.830    -5337601.574 6  -4029284.482 5
  21816807.932    -9446372.833 7  -7360807.006 8
  21649352.252    -7200136.612 7  -5610496.931 8
  24669549.861    -1113142.306 4   -804438.077 4
 94  2 15 18 43  0.0020000  0  6 25 14 18 22 29 19
  24871444.721    18692898.901 3  14565880.911 4
  20819501.189    -4266510.164 7  -3324555.873 7
  23288965.057    -5400316.926 6  -4078153.546 6
  21817608.010    -9442156.305 7  -7357521.378 8
  21644964.807    -7223183.352 7  -5628455.412 8
  24654682.104    -1191203.008 3   -865264.601 4
 94  2 15 18 43 30.0020000  0  7 25 14 15 18 22 29 19
  24891022.830    18795839.368 3  14646094.066 4
  20825291.299    -4236066.109 7  -3300833.246 7
  25414225.103          -0.84613
  23277040.518    -5462971.001 6  -4126974.847 5
  21818531.346    -9437327.080 7  -7353758.324 8
  21640613.111    -7246074.843 7  -5646292.923 8
  24639876.924    -1269056.290 3   -925929.429 5
 94  2 15 18 44  0.0020000  0  6 25 14 18 22 29 19
  24910613.869    18898795.215 4  14726319.219 4
  20831194.182    -4205068.048 7  -3276678.936 7
  23265131.908    -5525554.981 6  -4175741.551 5
  21819564.408    -9431873.701 7  -7349508.926 8
  21636287.885    -7268800.209 7  -5664000.990 8
  24625103.893    -1346693.655 3   -986426.013 2
 94  2 15 18 44 30.0020000  0  6 25 14 18 22 29 19
  24930193.213    19001757.947 4  14806549.804 4
  20837197.424    -4173497.866 7  -3252078.816 8
  23253238.924    -5588053.458 6  -4224441.620 6
  21820723.643    -9425796.517 7  -7344773.445 8
  21632000.486    -7291343.722 7  -5681567.359 8
  24610372.869    -1424115.974 3  -1046755.032 4
 94  2 15 18 45  0.0020000  0  6 25 14 18 22 29 19
  24949794.705    19104715.196 5  14886776.155 2
  20843321.627    -4141339.430 7  -3227020.313 7
  23241360.486    -5650474.724 6  -4273081.537 5
  21821994.674    -9419098.689 7  -7339554.350 8
  21627744.182    -7313709.021 7  -5698994.860 8
  24595681.064    -1501319.740 3  -1106913.783 3
 94  2 15 18 45 30.0020000  0  5 25 14 18 22 29
  24969380.979    19207663.046 5  14966995.178 2
  20849550.627    -4108579.365 7  -3201493.023 7
  23229491.963    -5712819.597 6  -4321661.911 5
  21823389.299    -9411781.684 7  -7333852.787 8
  21623521.814    -7335881.785 7  -5716272.323 8
 94  2 15 18 46  0.0020000  0  5 25 14 18 22 29
  24988974.369    19310625.131 5  15047225.303 2
  20855904.564    -4075200.177 7  -3175483.290 7
  23217650.135    -5775070.198 6  -4370168.849 5
  21824902.158    -9403833.059 7  -7327659.045 8
  21619340.924    -7357853.362 7  -5733393.023 8
 94  2 15 18 46 30.0020000  0  6 25 14 18 22 29 19
  25008577.986    19413606.938 5  15127470.786 2
  20862374.525    -4041198.674 7  -3148988.639 7
  23205819.549    -5837227.893 5  -4418603.387 5
  21826534.455    -9395257.550 7  -7320976.823 8
  21615198.283    -7379639.248 7  -5750369.035 8
  24551827.744          -0.35713
 94  2 15 18 47  0.0020000  0  6 25 14 18 22 29 19
  25028184.229    19516609.164 5  15207732.175 3
  20868963.182    -4006589.096 7  -3122020.161 7
  23194010.322    -5899296.568 6  -4466968.555 5
  21828284.463    -9386054.673 7  -7313805.762 8
  21611085.283    -7401251.950 7  -5767210.094 9
  24537287.447      -76432.835 3        -0.25911
 94  2 15 18 47 30.0020000  0  5 25 14 18 22 29
  25047783.221    19619627.229 4  15288005.864 2
  20875659.932    -3971388.982 7  -3094591.531 7
  23182221.932    -5961260.242 6  -4515251.897 5
  21830158.471    -9376226.508 7  -7306147.470 8
  21607003.791    -7422689.541 7  -5783914.701 8
 94  2 15 18 48  0.0020000  0  5 25 14 18 22 29
  25067383.697    19722654.354 3  15368286.591 3
  20882469.549    -3935610.065 7  -3066711.885 7
  23170449.033    -6023112.014 6  -4563448.038 5
  21832144.275    -9365773.020 7  -7298001.910 8
  21602957.221    -7443959.182 7  -5800488.443 8
 94  2 15 18 48 30.0020000  0  6 25 14 18 22 29 19
  25086982.783    19825675.698 4  15448562.857 2
  20889383.635    -3899259.954 7  -3038387.148 7
  23158699.650    -6084861.854 6  -4611564.749 6
  21834252.228    -9354701.321 7  -7289374.625 8
  21598939.869    -7465073.020 7  -5816940.783 8
  24493851.963      -37928.81313
 94  2 15 18 49  0.0020000  0  6 25 14 18 22 29 19
  25106597.166    19928692.194 5  15528835.328 1
  20896411.596    -3862343.966 7  -3009621.466 7
  23146968.080    -6146504.339 6  -4659597.815 6
  21836476.361    -9343001.088 7  -7280257.569 8
  21594954.049    -7486009.979 7  -5833255.292 8
  24479438.408     -113624.264 3
 94  2 15 18 49 30.0020000  0  6 25 14 18 22 29 19
  25126202.127    20031703.079 5  15609103.453 2
  20903541.447    -3824866.191 7  -2980418.044 8
  23135258.049    -6208044.029 6  -4707550.781 6
  21838823.752    -9330669.950 7  -7270648.931 8
  21591004.221    -7506770.521 7  -5849432.325 8
  24465081.064     -189104.702 5        -0.24011
 94  2 15 18 50  0.0020000  0  7 25 14  4 18 22 29 19
  25145801.119    20134714.257 5  15689371.808 2
  20910780.447    -3786821.710 7  -2950773.025 8
  25410018.314       -4973.71313
  23123567.588    -6269503.229 6  -4755441.029 6
  21841291.041    -9317714.637 7  -7260553.898 8
  21587085.557    -7527355.046 7  -5865472.202 8
  24450767.924     -264359.261 5    -58640.081 3
 94  2 15 18 50 30.0020000  0  7 25 14  4 18 22 29 19
  25165406.924    20237733.109 5  15769646.118 2
  20918131.666    -3748197.105 7  -2920675.980 8
  25408192.377      -14547.999 3        -0.09411
  23111885.361    -6330884.863 6  -4803270.844 6
  21843877.885    -9304124.569 7  -7249964.248 8
  21583206.650    -7547751.871 7  -5881365.837 8
  24436488.619     -339370.290 5   -117090.073 3
 94  2 15 18 51  0.0020000  0  7 25 14  4 18 22 29 19
  25185010.416    20340751.382 5  15849919.954 3
  20925594.033    -3709007.665 7  -2890138.777 8
  25406472.244      -23630.893 3     -7077.693 1
  23100213.877    -6392201.343 6  -4851049.889 6
  21846577.111    -9289913.136 7  -7238890.419 8
  21579361.478    -7567959.585 7  -5897112.105 8
  24422261.041     -414164.017 5   -175370.840 2
 94  2 15 18 51 30.0020000  0  6 14  4 18 22 29 19
  20933160.150    -3669243.389 7  -2859153.661 8
  25404829.541      -32224.064 3    -13773.752 1
  23088560.260    -6453457.607 6  -4898782.016 6
  21849401.252    -9275087.146 7  -7227337.709 8
  21575549.830    -7587978.902 7  -5912711.578 8
  24408068.635     -488744.952 5   -233485.847 2
 94  2 15 18 52  0.0020000  0  6 14  4 18 22 29 19
  20940833.486    -3628894.557 7  -2827713.049 7
  25403285.064      -40337.840 3    -20096.289 1
  23076915.643    -6514657.071 6  -4946469.871 5
  21852337.416    -9259658.490 7  -7215315.379 8
  21571777.033    -7607810.999 7  -5928165.162 8
  24393920.221     -563127.788 5   -291446.467 4
 94  2 15 18 52 30.0020000  0  6 14  4 18 22 29 19
  20948621.518    -3587964.521 7  -2795819.549 7
  25401838.893      -47965.685 3    -26040.044 2
  23065280.885    -6575791.364 6  -4994106.930 5
  21855389.463    -9243623.278 7  -7202820.426 8
  21568039.674    -7627460.949 7  -5943476.814 9
  24379786.502     -637314.803 5   -349254.441 2
 94  2 15 18 53  0.0020000  0  6 14  4 18 22 29 19
  20956517.268    -3546469.184 7  -2763485.550 7
  25400485.260      -55087.951 3    -31589.937 3
  23053659.393    -6636853.943 6  -5041688.132 5
  21858555.549    -9226990.885 7  -7189860.122 8
  21564332.088    -7646930.327 7  -5958647.763 9
  24365714.049     -711317.571 5   -406918.877 2
 94  2 15 18 53 30.0020000  0  6 14  4 18 22 29 19
  20964523.260    -3504411.958 7  -2730713.716 7
  25399220.666      -61687.646 3    -36732.596 2
  23042055.393    -6697830.018 6  -5089201.931 6
  21861831.822    -9209765.881 7  -7176438.056 8
  21560659.283    -7666228.332 7  -5973685.177 9
  24351665.588     -785116.595 5   -464424.581 2
 94  2 15 18 54  0.0020000  0  6 14  4 18 22 29 19
  20972627.619    -3461812.514 7  -2697519.382 7
  25398089.291      -67750.566 3    -41456.975 1
  23030469.197    -6758708.961 6  -5136640.047 6
  21865220.236    -9191950.830 7  -7162556.217 8
  21557021.713    -7685360.374 7  -5988593.267 9
  24337666.119     -858706.643 5   -521767.426 4
 94  2 15 18 54 30.0020000  0  6 14  4 18 22 29 19
  20980832.979    -3418683.269 7  -2663912.208 7
  25397023.182      -73267.902 3    -45756.283 1
  23018906.721    -6819476.465 6  -5183991.312 6
  21868727.314    -9173531.667 7  -7148203.624 8
  21553413.619    -7704322.718 7  -6003369.130 9
  24323701.525     -932076.664 5   -578938.828 4
 94  2 15 18 55  0.0020000  0  6 14  4 18 22 29 19
  20989150.705    -3375004.774 7  -2629877.049 7
  25396079.471      -78236.382 3    -49627.865 1
  23007366.861    -6880115.145 6  -5231242.202 6
  21872350.330    -9154491.565 7  -7133367.190 8
  21549839.393    -7723098.033 7  -6017999.258 8
  24309785.908    -1005208.615 5   -635924.727 3
 94  2 15 18 55 30.0020000  0  6 14  4 18 22 29 19
  20997566.135    -3330770.483 7  -2595408.814 8
  25395230.877      -82693.277 4    -53100.819 1
  22995849.705    -6940636.605 6  -5278401.731 6
  21876093.080    -9134829.692 7  -7118046.259 8
  21546300.674    -7741694.606 7  -6032490.096 8
  24295922.018    -1078097.714 5   -692721.366 3
 94  2 15 18 56  0.0020000  0  6 14  4 18 22 29 19
  21006092.564    -3285961.456 7  -2560492.708 7
  25394481.736      -86662.347 5    -56193.670 2
  22984355.096    -7001045.580 6  -5325473.638 5
  21879953.877    -9114531.458 7  -7102229.477 9
  21542796.228    -7760097.825 7  -6046830.283 8
  24282090.166    -1150764.689 5   -749344.936 5
 94  2 15 18 56 30.0020000  0  6 14  4 18 22 29 19
  21014731.377    -3240571.692 7  -2525124.093 7
  25393811.846      -90167.159 5    -58924.770 1
  22972875.572    -7061366.983 6  -5372477.295 5
  21883934.150    -9093607.431 7  -7085925.059 8
  21539329.838    -7778314.456 7  -6061025.075 8
  24268303.314    -1223219.619 5   -805803.305 4
 94  2 15 18 57  0.0020000  0  6 14  4 18 22 29 19
  21023477.018    -3194593.890 7  -2489297.264 8
  25393230.721      -93203.690 4    -61290.996 1
  22961414.736    -7121608.315 6  -5419418.562 5
  21888036.486    -9072071.935 7  -7069144.183 8
  21535901.197    -7796342.689 7  -6075073.047 9
  24254554.143    -1295460.461 5   -862094.858 5
 94  2 15 18 57 30.0020000  0  6 14  4 18 22 29 19
  21032341.127    -3148027.700 7  -2453011.947 7
  25392748.682      -95774.128 3    -63293.979 1
  22949965.221    -7181765.380 6  -5466294.177 5
  21892247.721    -9049940.094 7  -7051898.630 8
  21532506.330    -7814180.668 7  -6088972.778 9
  24240841.346    -1367501.293 5   -918230.558 5
 94  2 15 18 58  0.0020000  0  6 14  4 18 22 29 19
  21041311.291    -3100878.793 7  -2416272.569 8
  25392352.197      -97869.618 4    -64926.885 1
  22938532.205    -7241844.627 6  -5513109.145 6
  21896570.143    -9027218.504 7  -7034193.525 8
  21529148.963    -7831824.732 7  -6102721.402 9
  24227174.291    -1439355.885 5   -974221.118 5
 94  2 15 18 58 30.0020000  0  6 14  4 18 22 29 19
  21050395.346    -3053165.657 7  -2379093.519 7
  25392033.947      -99482.253 3    -66183.540 2
  22927111.182    -7301844.700 6  -5559862.429 6
  21901005.775    -9003901.092 7  -7016024.147 8
  21525827.947    -7849278.861 7  -6116322.017 9
  24213535.900    -1511003.681 5  -1030050.504 5
 94  2 15 18 59  0.0020000  0  6 14  4 18 22 29 19
  21059581.002    -3004884.909 7  -2341472.209 8
  25391818.932     -100615.894 4    -67066.937 3
  22915713.018    -7361750.796 6  -5606542.483 6
  21905558.807    -8979974.804 7  -6997380.310 8
  21522545.150    -7866532.022 7  -6129766.051 8
  24199944.299    -1582452.751 5  -1085725.063 4
 94  2 15 18 59 30.0020000  0  6 14  4 18 22 29 19
  21068874.174    -2956038.198 7  -2303409.869 7
  25391700.643     -101275.650 5    -67581.137 2
  22904332.174    -7421561.709 6  -5653148.366 6
  21910232.361    -8955420.038 7  -6978246.769 8
  21519300.854    -7883574.749 7  -6143046.108 8
  24186379.658    -1653702.994 5  -1141244.681 5
 94  2 15 19  0  0.0020000  0  6 14  4 18 22 29 19
  21078273.619    -2906636.783 7  -2264915.286 7
  25391667.025     -101450.694 5    -67717.572 2
  22892962.932    -7481291.087 6  -5699690.717 6
  21915029.533    -8930218.508 7  -6958609.262 9
  21516095.158    -7900411.170 7  -6156165.411 8
  24172863.611    -1724758.750 5  -1196612.714 5
 94  2 15 19  0 30.0020000  0  6 14  4 18 22 29 19
  21087779.197    -2856698.247 7  -2226002.169 7
  25391724.986     -101143.037 4    -67477.975 1
  22881615.721    -7540931.441 6  -5746163.691 6
  21919942.502    -8904381.364 7  -6938476.460 9
  21512932.408    -7917047.988 7  -6169129.165 9
  24159384.877    -1795610.207 5  -1251821.585 5
 94  2 15 19  1  0.0020000  0  6 14  4 18 22 29 19
  21097386.705    -2806206.210 7  -2186657.754 7
  25391875.627     -100341.533 3    -66853.484 1
  22870288.994    -7600470.679 6  -5792557.872 6
  21924979.924    -8877926.185 7  -6917862.075 9
  21509806.236    -7933483.488 7  -6181936.049 9
  24145932.072    -1866259.432 5  -1306872.836 5
